This site uses a module created by best online poker sites.

BSB police report ending June 5, 2019

"06/04/2019","00:10","219CR0013054","SUSPICIOUS ACTIVITY","SUSPICIOUS ACTIVITY","431 N WYOMING","",""
"06/04/2019","00:22","219CR0013055","DISTURBANCE","DISTURBANCE","FRONT AND MONTANA","",""
"06/04/2019","01:37","219CR0013056","ASSIST OTHER AGENCY","ASSIST OTHER AGENCY","626 W GALENA ST APT A","",""
"06/04/2019","01:57","219CR0013057","OPEN BUILDING","OPEN BUILDING","224 S WYOMING ST","",""
"06/04/2019","02:05","219CR0013058","FIRE - STRUCTURE","FIRE - STRUCTURE","111 W BROADWAY","",""
"06/04/2019","02:11","219CR0013059","RESTRAINING ORDER VIOLATION","VIOLATION OF PROTECTION ORDER","845 LEWISHON","",""
"06/04/2019","02:16","219CR0013060","ALARM - BURGLARY","ALARM - BURGLARY","************","",""
"06/04/2019","02:27","219CR0013061","BUSINESS CHECK","BUSINESS CHECK","531 S MONTANA","",""
"06/04/2019","05:33","219CR0013062","SUSPICIOUS ACTIVITY","SUSPICIOUS ACTIVITY","5100 S WARREN TRLR 13","",""
"06/04/2019","05:54","219CR0013063","T/S","T/S","","",""
"06/04/2019","06:39","219CR0013064","SUSPICIOUS ACTIVITY","SUSPICIOUS ACTIVITY","5100 WARREN","",""
"06/04/2019","06:53","219CR0013065","THEFT","BURGLARY, NON-RESIDENCE","1355 SCHLEY ST","",""
"06/04/2019","07:20","219CR0013066","DISTURBANCE","DISTURBANCE","1508 SILVER BOW HOMES","",""
"06/04/2019","08:23","219CR0013067","ALARM - FIRE","ALARM - FIRE","3114 PRINCETON","",""
"06/04/2019","08:44","219CR0013068","WANTED PERSON","WANTED PERSON","************","",""
"06/04/2019","08:47","219CR0013069","VANDALISM/CRIMINAL MISCHIEF","VANDALISM/CRIMINAL MISCHIEF","2023 WALNUT","",""
"06/04/2019","09:05","219CR0013070","THEFT","THEFT, ALL OTHERS","1301 HARRISON AVE","",""
"06/04/2019","09:21","219CR0013071","SUSPICIOUS ACTIVITY","SUSPICIOUS ACTIVITY","2200 BLK CENTER","",""
"06/04/2019","09:36","219CR0013072","ASSIST OTHER AGENCY","ASSIST OTHER AGENCY","","",""
"06/04/2019","09:51","219CR0013073","TRAFFIC","TRAFFIC","I15 NB MM 133","",""
"06/04/2019","10:10","219CR0013074","T/S","T/S","2051 HARRISON AVE","",""
"06/04/2019","10:22","219CR0013075","ALARM - BURGLARY","ALARM - BURGLARY","************","",""
"06/04/2019","10:41","219CR0013076","WANTED PERSON","PRIVACY IN COMMUNICATION","804 SILVER BOW","ARREST(s) MADE",""
"06/04/2019","10:53","219CR0013077","CIVIL PAPER SERVICE","CIVIL PAPER SERVICE","5100 S WARREN # 56","",""
"06/04/2019","11:05","219CR0013078","PARKING COMPLAINT","PARKING COMPLAINT","714 W PARK","",""
"06/04/2019","11:10","219CR0013079","CIVIL PAPER SERVICE","CIVIL PAPER SERVICE","703 N MONTANA","",""
"06/04/2019","11:13","219CR0013080","MEDICAL - EMERGENCY","MEDICAL - EMERGENCY","100 CATTLE DRIVE","",""
"06/04/2019","11:14","219CR0013081","CIVIL PAPER SERVICE","CIVIL PAPER SERVICE","211 W WOOLMAN","",""
"06/04/2019","11:25","219CR0013082","T/S","T/S @ 800 BLK S WYOMING ST","800 BLK S WYOMING ST","",""
"06/04/2019","11:32","219CR0013083","DISTURBANCE","DISTURBANCE","1021 S ARIZONA","",""
"06/04/2019","11:34","219CR0013084","THEFT","THEFT","445 CENTENIAL AVE","",""
"06/04/2019","11:35","219CR0013085","T/S","T/S","PLATINUM AND MAIN","",""
"06/04/2019","11:38","219CR0013086","MEDICAL - EMERGENCY","MEDICAL - EMERGENCY","226 W SILVER #27","",""
"06/04/2019","11:41","219CR0013087","LED BUSINESS","LED BUSINESS","24 E COPPER","",""
"06/04/2019","11:49","219CR0013088","MEDICAL - EMERGENCY","MEDICAL - EMERGENCY","133 E ALUMINUM ST","",""
"06/04/2019","12:03","219CR0013089","DISTURBANCE","DISTURBANCE","3901 HARRISON AVE","",""
"06/04/2019","12:10","219CR0013091","SUSPICIOUS ACTIVITY","SUSPICIOUS ACTIVITY","1019 E SECOND","",""
"06/04/2019","12:10","219CR0013090","T/S","T/S @ GRAND AVE AND FLORENCE AVE","GRAND AVE AND FLORENCE AVE","",""
"06/04/2019","12:14","219CR0013092","T/S","T/S","2400 HARRISON AVE","",""
"06/04/2019","12:25","219CR0013093","BUSINESS CHECK","BUSINESS CHECK","58 W PARK ST","",""
"06/04/2019","12:35","219CR0013094","T/S","T/S","2100 BLK HARRISON","",""
"06/04/2019","12:38","219CR0013095","THEFT","THEFT, ALL OTHERS","116115 S BUXTON RD","",""
"06/04/2019","12:39","219CR0013096","ABANDONED VEHICLE","ABANDONED VEHICLE","2000 BLK FLORENCE","",""
"06/04/2019","12:57","219CR0013097","T/S","T/S @ RAILROAD ST AND KAW","RAILROAD ST AND KAW","",""
"06/04/2019","12:58","219CR0013098","DISTURBANCE","DISTURBANCE","106 W BROADWAY","",""
"06/04/2019","13:05","219CR0013099","LED BUSINESS","LED BUSINESS","UPTOWN FOOT PATROL","",""
"06/04/2019","13:08","219CR0013100","ALARM - BURGLARY","ALARM - BURGLARY","************","",""
"06/04/2019","13:12","219CR0013101","DETENTION BUSINESS","DETENTION BUSINESS","************","",""
"06/04/2019","13:28","219CR0013102","INTIMIDATION","INTIMIDATION","1746 THOMAS AVE","",""
"06/04/2019","13:34","219CR0013103","HIT AND RUN","HIT AND RUN","1205 S MONTANA","",""
"06/04/2019","13:36","219CR0013104","RESTRAINING ORDER VIOLATION","VIOLATION OF PROTECTION ORDER","845 LEWISHON","",""
"06/04/2019","13:37","219CR0013105","WANTED PERSON","POSSESS DRUG PARAPHERNALIA","1508 SILVER BOW HOMES","ARREST(s) MADE",""
"06/04/2019","13:42","219CR0013106","ALARM - FIRE","ALARM - FIRE","3033 BUSCH BLDG 5","",""
"06/04/2019","13:56","219CR0013107","ALARM - BURGLARY","ALARM - BURGLARY","************","",""
"06/04/2019","14:15","219CR0013109","DETENTION BUSINESS","DETENTION BUSINESS","************","",""
"06/04/2019","14:15","219CR0013108","SUICIDE ATTEMPT/THREAT","SUICIDE ATTEMPT/THREAT","************","",""
"06/04/2019","14:29","219CR0013110","ALARM - BURGLARY","ALARM - BURGLARY","************","",""
"06/04/2019","14:31","219CR0013111","T/S","T/S","FRONT AND ARIZONA","",""
"06/04/2019","14:35","219CR0013112","WELFARE CHECK","WELFARE CHECK","1619 B ST","",""
"06/04/2019","14:36","219CR0013113","T/S","T/S","DUNDEE ST AND HARRISON AVE","",""
"06/04/2019","14:39","219CR0013114","T/S","T/S","HARRISON AVE AND COBBAN ST","",""
"06/04/2019","15:01","219CR0013115","DISTURBANCE","DISTURBANCE","1021 S ARIZONA ST","",""
"06/04/2019","15:30","219CR0013116","SUSPICIOUS ACTIVITY","SUSPICIOUS ACTIVITY","1129 W GRANITE","",""
"06/04/2019","15:30","219CR0013117","DISTURBANCE","DISTURBANCE","3529 S WARREN AVE","",""
"06/04/2019","15:31","219CR0013118","HARASSMENT","HARASSMENT","611 W GRANITE","",""
"06/04/2019","15:56","219CR0013119","T/S","T/S @ FRONT ST AND CALIFORNIA ST","FRONT ST AND CALIFORNIA ST","",""
"06/04/2019","16:13","219CR0013120","CIVIL PAPER SERVICE","CIVIL PAPER SERVICE","155 W QUARTZ","",""
"06/04/2019","16:25","219CR0013121","ALARM - BURGLARY","ALARM - BURGLARY","************","",""
"06/04/2019","16:33","219CR0013122","ATL","ATL","HARRISON // ELIZA BETH WARREN","",""
"06/04/2019","16:38","219CR0013123","T/S","T/S","DEWEY AND BUSCH","",""
"06/04/2019","17:19","219CR0013124","HARASSMENT","HARASSMENT","611 W QUARTZ","",""
"06/04/2019","17:22","219CR0013125","DISTURBANCE","DISTURBANCE","1511 GAYLORD","",""
"06/04/2019","17:40","219CR0013126","T/S","T/S @ SHERIDAN AVE AND WHITE WY","SHERIDAN AVE AND WHITE WY","",""
"06/04/2019","17:55","219CR0013128","THEFT","THEFT, SHOPLIFT","3901 HARRISON AVE","ARREST(s) MADE",""
"06/04/2019","17:55","219CR0013127","T/S","T/S @ GRAND AND FLORENCE","GRAND AND FLORENCE","",""
"06/04/2019","18:05","219CR0013129","SUSPICIOUS ACTIVITY","THEFT, ALL OTHERS","2616 LOCUST ST","",""
"06/04/2019","18:11","219CR0013130","T/S","T/S @ GRAND AND FLORENCE","GRAND AND FLORENCE","",""
"06/04/2019","18:15","219CR0013131","FIRE - OTHER","FIRE - OTHER","520 W PARK","",""
"06/04/2019","18:19","219CR0013132","UNKNOWN PROBLEM","UNKNOWN PROBLEM","920 S COLORADO","",""
"06/04/2019","18:46","219CR0013133","DISTURBANCE","DISTURBANCE","400 S CLARK ST","",""
"06/04/2019","19:18","219CR0013134","ASSIST OTHER AGENCY","ASSIST OTHER AGENCY","I15 MM 125 NB","",""
"06/04/2019","19:34","219CR0013135","SUICIDE ATTEMPT/THREAT","SUICIDE ATTEMPT/THREAT","************","",""
"06/04/2019","19:35","219CR0013136","ALARM - BURGLARY","ALARM - BURGLARY","************","",""
"06/04/2019","19:40","219CR0013137","THEFT","THEFT","2703 YALE","",""
"06/04/2019","20:05","219CR0013138","SUSPICIOUS ACTIVITY","SUSPICIOUS ACTIVITY","222 E PARK SPARKYS GARAGE","",""
"06/04/2019","20:08","219CR0013139","T/S","T/S","FARRELL AND STEWART","",""
"06/04/2019","20:12","219CR0013140","T/S","T/S @ TEXAS AND GRAND","TEXAS AND GRAND","",""
"06/04/2019","20:24","219CR0013141","SUSPICIOUS ACTIVITY","SUSPICIOUS ACTIVITY","5100 S WARREN #13","",""
"06/04/2019","20:38","219CR0013142","MEDICAL - EMERGENCY","MEDICAL - EMERGENCY","50 W BROADWAY ST","",""
"06/04/2019","20:47","219CR0013143","SUSPICIOUS ACTIVITY","SUSPICIOUS ACTIVITY","317 GRANITE MTN ROAD","",""
"06/04/2019","20:50","219CR0013144","FIRE - OTHER","FIRE - OTHER","1900 BLK HOWARD","",""
"06/04/2019","21:20","219CR0013145","ALARM - MEDICAL","ALARM - MEDICAL","************","",""
"06/04/2019","21:44","219CR0013146","SUSPICIOUS ACTIVITY","SUSPICIOUS ACTIVITY","2503 PINE","",""
"06/04/2019","21:51","219CR0013147","DISTURBANCE-NOISE","DISTURBANCE-NOISE","2015 WALNUT","",""
"06/04/2019","22:06","219CR0013148","T/S","T/S","GRAND AND LAFAYETTE","",""
"06/04/2019","22:25","219CR0013149","ASSIST OTHER AGENCY","ASSIST OTHER AGENCY","I90 WB","",""
"06/04/2019","22:30","219CR0013150","CIVIL STANDBY","CIVIL STANDBY","2035 ELM ST","",""
"06/04/2019","22:33","219CR0013151","RESTRAINING ORDER VIOLATION","RESTRAINING ORDER VIOLATION","************","",""
"06/04/2019","22:36","219CR0013152","SUSPICIOUS ACTIVITY","SUSPICIOUS ACTIVITY","IDAHO ST // MERCURY ST","",""
"06/04/2019","22:41","219CR0013153","ATL","ATL","HARRISON AVE","",""
"06/04/2019","23:13","219CR0013154","T/S","T/S @ TAFT ST AND OREGON AVE","TAFT ST AND OREGON AVE","",""
"06/04/2019","23:17","219CR0013155","WELFARE CHECK","WELFARE CHECK","37 TRINITY LOOP","",""
"06/04/2019","23:43","219CR0013156","JUVENILE MISC","JUVENILE MISC","************","",""
"06/05/2019","00:00","219CR0013157","ASSAULT","ASSAULT","************","",""
"06/05/2019","00:11","219CR0013158","SUSPICIOUS ACTIVITY","SUSPICIOUS ACTIVITY","1725 WALL ST","",""
"06/05/2019","00:21","219CR0013159","SUSPICIOUS ACTIVITY","SUSPICIOUS ACTIVITY","100 GARDENS WY","",""
"06/05/2019","00:24","219CR0013160","SUSPICIOUS ACTIVITY","SUSPICIOUS ACTIVITY","6 EAST 2ND ST","",""
"06/05/2019","00:53","219CR0013161","SUSPICIOUS ACTIVITY","SUSPICIOUS ACTIVITY","1129 W GRANITE","",""
"06/05/2019","01:24","219CR0013162","RESTRAINING ORDER VIOLATION","VIOLATION OF PROTECTION ORDER","2035 ELM ST","ARREST(s) MADE",""
"06/05/2019","02:01","219CR0013163","ALARM - BURGLARY","ALARM - BURGLARY","************","",""
"06/05/2019","02:09","219CR0013164","UNWANTED PERSON","UNWANTED PERSON","************","",""
"06/05/2019","03:59","219CR0013165","MEDICAL - EMERGENCY","MEDICAL - EMERGENCY","323 N JACKSON","",""
"06/05/2019","05:22","219CR0013166","SUSPICIOUS ACTIVITY","BURGLARY, RESIDENCE","123 W BROADWAY ST APT E","ARREST(s) MADE",""
"06/05/2019","05:41","219CR0013167","FIRE - OTHER","FIRE - OTHER","WARREN // 2ND ST","",""
"06/05/2019","07:05","219CR0013168","STOLEN VEHICLE","STOLEN VEHICLE","2100 CORNELL #155","",""
"06/05/2019","07:22","219CR0013169","ATL","ATL","I15 MONTANA AND LASALLE","",""
"06/05/2019","07:36","219CR0013170","T/S","T/S @ 1900 BLK S MONTANA ST","1900 BLK S MONTANA ST","",""
 

BSB police report ending June 4, 2019

"06/03/2019","00:30","219CR0012958","SUSPICIOUS ACTIVITY","SUSPICIOUS ACTIVITY","200 W SILVER ST","",""
"06/03/2019","00:34","219CR0012959","DISTURBANCE","DISTURBANCE","318 S EXCELSIOR","",""
"06/03/2019","00:45","219CR0012960","SUSPICIOUS ACTIVITY","SUSPICIOUS ACTIVITY","GOLD AND MONTANA","",""
"06/03/2019","01:37","219CR0012961","SUSPICIOUS ACTIVITY","SUSPICIOUS ACTIVITY","2ND AND WARREN","",""
"06/03/2019","02:26","219CR0012962","SUSPICIOUS ACTIVITY","SUSPICIOUS ACTIVITY","1203 HOWARD ST","",""
"06/03/2019","02:34","219CR0012963","MEDICAL - EMERGENCY","MEDICAL - EMERGENCY","323 GRANITE MOUNTAIN ROAD","",""
"06/03/2019","02:48","219CR0012964","T/S","T/S","PLATINUM AND EXCELSIOR","",""
"06/03/2019","03:00","219CR0012965","SUSPICIOUS ACTIVITY","SUSPICIOUS ACTIVITY","111 SILVERBOW HOMES","",""
"06/03/2019","03:11","219CR0012966","ILLEGAL SHOOTING","ILLEGAL SHOOTING","910 EVANS APT B2","",""
"06/03/2019","03:23","219CR0012967","SUSPICIOUS ACTIVITY","SUSPICIOUS ACTIVITY","673 PONY EXPRESS LANE","",""
"06/03/2019","04:09","219CR0012968","UNWANTED PERSON","CRIMINAL TRESPASS TO PROPERTY","3901 HARRISON AVE","ARREST(s) MADE",""
"06/03/2019","05:17","219CR0012969","DISTURBANCE","DISTURBANCE","1300 BLK HARRISON AVE","",""
"06/03/2019","05:22","219CR0012970","T/S","T/S","904 UTAH ST / WHALEN TIRE","",""
"06/03/2019","06:01","219CR0012971","JUVENILE RUNAWAY","UNGOVERNABLE JUVENILE","420 W ALUMINUM","",""
"06/03/2019","06:29","219CR0012973","STOLEN VEHICLE","MOTOR VEHICLE THEFT","2900 HARRISON AVE","",""
"06/03/2019","06:37","219CR0012974","THEFT","THEFT FROM MOTOR VEHICLE","1 HOLIDAY PARK","",""
"06/03/2019","06:49","219CR0012975","ANIMAL COMPLAINT","ANIMAL COMPLAINT","3703 HARRISON STE B","",""
"06/03/2019","07:52","219CR0012976","CITIZEN AID","CITIZEN AID","309 S IDAHO","",""
"06/03/2019","08:01","219CR0012978","ATL","ATL","CONTINENTAL AND ADAMS","",""
"06/03/2019","08:24","219CR0012979","WELFARE CHECK","WELFARE CHECK","400 S CLARK ST","",""
"06/03/2019","08:27","219CR0012980","T/S","T/S @ PLATINUM AND MONTANA","PLATINUM AND MONTANA","",""
"06/03/2019","08:37","219CR0012981","ANIMAL COMPLAINT","ANIMAL COMPLAINT","6354 ALBANY","",""
"06/03/2019","08:41","219CR0012982","RESTRAINING ORDER VIOLATION","VIOLATION OF PROTECTION ORDER","207 NEVERSWEAT","",""
"06/03/2019","09:15","219CR0012983","T/S","T/S @ PLATINUM AND DAKOTA","PLATINUM AND DAKOTA","",""
"06/03/2019","09:23","219CR0012984","T/S","T/S @ MONTANA ST AND ALUMINUM ST","MONTANA ST AND ALUMINUM ST","",""
"06/03/2019","09:33","219CR0012985","T/S","T/S @ PLATINUM AND MONTANA","PLATINUM AND MONTANA","",""
"06/03/2019","09:37","219CR0012986","DISTURBANCE","DISTURBANCE","1028 EMPIRE","",""
"06/03/2019","09:43","219CR0012987","T/S","T/S @ MONTANA ST AND ALUMINUM ST","MONTANA ST AND ALUMINUM ST","",""
"06/03/2019","09:49","219CR0012988","T/S","T/S @ 531 S MONTANA","531 S MONTANA","",""
"06/03/2019","10:07","219CR0012989","T/S","T/S @ MONTANA ST AND ALUMINUM ST","MONTANA ST AND ALUMINUM ST","",""
"06/03/2019","10:08","219CR0012990","CIVIL PAPER SERVICE","CIVIL PAPER SERVICE","643 S UTAH #A","",""
"06/03/2019","10:12","219CR0012991","WANTED PERSON","WANTED PERSON","************","",""
"06/03/2019","10:16","219CR0012992","CIVIL PAPER SERVICE","CIVIL PAPER SERVICE","662 S WASHINGTON","",""
"06/03/2019","10:17","219CR0012993","WANTED PERSON","WANTED PERSON","************","",""
"06/03/2019","10:17","219CR0012994","T/S","T/S @ 1300 BLK MONTANA","1300 BLK MONTANA","",""
"06/03/2019","10:31","219CR0012995","RESTRAINING ORDER VIOLATION","VIOLATION OF PROTECTION ORDER","1115 OREGON AVE","",""
"06/03/2019","11:08","219CR0012996","T/S","T/S @ 675 S MT COPPER CITY CROSSFIT","675 S MT COPPER CITY CROSSFIT","",""
"06/03/2019","11:20","219CR0012997","BUSINESS CHECK","BUSINESS CHECK","58 W PARK ST","",""
"06/03/2019","11:32","219CR0012998","T/S","T/S","531 S MONTANA TOWN PUMP LOT","",""
"06/03/2019","11:39","219CR0012999","HIT AND RUN","HIT AND RUN, UNATTENDED VEHICL","850 W BROADWAY ST","",""
"06/03/2019","11:41","219CR0013000","UNWANTED PERSON","UNWANTED PERSON","************","",""
"06/03/2019","12:04","219CR0013001","ATL","ATL","I15 MM 124 NB","",""
"06/03/2019","13:01","219CR0013002","LED BUSINESS","LED BUSINESS","UPTOWN FOOT PATROL","",""
"06/03/2019","13:26","219CR0013003","LED BUSINESS","LED BUSINESS","155 W QUARTZ","",""
"06/03/2019","13:34","219CR0013004","WELFARE CHECK","WELFARE CHECK","39 LUPINE LANE","",""
"06/03/2019","14:00","219CR0013005","VEHICLE INSPECTION","VEHICLE INSPECTION","181 TRINITY LOOP","",""
"06/03/2019","14:54","219CR0013006","T/S","T/S","TOWN PUMP 2711 HARRISON","",""
"06/03/2019","15:06","219CR0013007","THEFT","THEFT, ALL OTHERS","2402 S MAIN ST","",""
"06/03/2019","15:15","219CR0013008","T/S","T/S","BURGER KING PARKING LOT","",""
"06/03/2019","15:21","219CR0013009","VANDALISM/CRIMINAL MISCHIEF","VANDALISM/CRIMINAL MISCHIEF","","",""
"06/03/2019","15:32","219CR0013010","ALL OTHER","ALL OTHER","1050 S MONTANA WEBSTER COMPLEX","",""
"06/03/2019","15:34","219CR0013011","BUSINESS CHECK","BUSINESS CHECK","58 W PARK ST PARKING GARAGE","",""
"06/03/2019","15:42","219CR0013012","CITIZEN AID","CITIZEN AID","1519 B ST","",""
"06/03/2019","15:54","219CR0013013","SUSPICIOUS ACTIVITY","SUSPICIOUS ACTIVITY","3745 HARRISON BUFFALO WILD WIN","",""
"06/03/2019","16:00","219CR0013014","VANDALISM/CRIMINAL MISCHIEF","VANDALISM/CRIMINAL MISCHIEF","","",""
"06/03/2019","16:04","219CR0013015","MEDICAL - EMERGENCY","MEDICAL - EMERGENCY","ALABAMA AND PARK","",""
"06/03/2019","16:11","219CR0013016","TRAFFIC","TRAFFIC","4 MILE RD AND WARREN","",""
"06/03/2019","16:24","219CR0013017","T/S","AGGRAVATED DUI","5100 S WARREN TRAILER #23","ARREST(s) MADE",""
"06/03/2019","16:27","219CR0013018","ACCIDENT","ACCIDENT","WALMART S PARKING LOT","",""
"06/03/2019","16:59","219CR0013019","FIRE - OTHER","FIRE - OTHER","2000 BLK GARRISON E ALLEY","",""
"06/03/2019","17:20","219CR0013020","HARASSMENT","HARASSMENT","2218 ELM","",""
"06/03/2019","17:35","219CR0013021","DISTURBANCE","PAROLE VIOLATION","62 W BROADWAY PRE RELEASE CENT","",""
"06/03/2019","17:47","219CR0013022","ATL","ATL","3901 HARRISON WALMART","",""
"06/03/2019","17:49","219CR0013023","ACCIDENT","CHANGING LANES WHEN UNSAFE","3100 BLK HARRISON","",""
"06/03/2019","17:56","219CR0013024","JUVENILE MISC","UNGOVERNABLE JUVENILE","1837 GARRISON","ARREST(s) MADE",""
"06/03/2019","18:25","219CR0013025","ALL OTHER","ALL OTHER","","",""
"06/03/2019","18:41","219CR0013026","ALL OTHER","SEXUAL ASSAULT","************","",""
"06/03/2019","18:44","219CR0013027","TRAFFIC HAZARD","TRAFFIC HAZARD","AMHERST AND HARRISON","",""
"06/03/2019","18:50","219CR0013028","ACCIDENT","MAKE R TURN FROM WRONG LANE","HARRISON AVE AND HOLMES AVE","",""
"06/03/2019","18:53","219CR0013029","VANDALISM/CRIMINAL MISCHIEF","VANDALISM/CRIMINAL MISCHIEF","16 N EXCELSIOR","",""
"06/03/2019","19:02","219CR0013030","MEDICAL - EMERGENCY","MEDICAL - EMERGENCY","1960 HARRISON AV","",""
"06/03/2019","19:11","219CR0013031","JUVENILE MISC","POSSESS DRUG PARAPHERNALIA","CLARKS PARK","ARREST(s) MADE",""
"06/03/2019","19:28","219CR0013032","WANTED PERSON","WANTED PERSON","************","",""
"06/03/2019","19:45","219CR0013033","DISTURBANCE","FAILURE TO DISPERSE","400 S CLARK ST","ARREST(s) MADE",""
"06/03/2019","19:49","219CR0013034","UNKNOWN PROBLEM","UNKNOWN PROBLEM","1721 GRAND AVE","",""
"06/03/2019","20:11","219CR0013035","DRUGS","DRUGS","************","",""
"06/03/2019","20:18","219CR0013036","WELFARE CHECK","WELFARE CHECK","238 S DAKOTA ST","",""
"06/03/2019","20:21","219CR0013037","DISTURBANCE","DISTURBANCE","3100 HARRISON AVE","",""
"06/03/2019","20:37","219CR0013038","SUSPICIOUS ACTIVITY","SUSPICIOUS ACTIVITY","2100 CORNELL AVE","",""
"06/03/2019","20:45","219CR0013039","WELFARE CHECK","WELFARE CHECK","1816 TEXAS AVE","",""
"06/03/2019","21:30","219CR0013041","SUSPICIOUS ACTIVITY","SUSPICIOUS ACTIVITY","58 W PARK ST","",""
"06/03/2019","21:45","219CR0013042","HARASSMENT","HARASSMENT","1397 SUNRISE LANE","",""
"06/03/2019","21:52","219CR0013043","JUVENILE MISC","JUVENILE MISC","************","",""
"06/03/2019","21:55","219CR0013044","SUSPICIOUS ACTIVITY","SUSPICIOUS ACTIVITY","RAMSEY EXIT W BOUND","",""
"06/03/2019","21:58","219CR0013045","SUICIDE ATTEMPT/THREAT","SUICIDE ATTEMPT/THREAT","************","",""
"06/03/2019","22:02","219CR0013046","SUSPICIOUS ACTIVITY","SUSPICIOUS ACTIVITY","665 S MAIN ST","",""
"06/03/2019","22:16","219CR0013047","SUSPICIOUS ACTIVITY","SUSPICIOUS ACTIVITY","831 WAUKESHA","",""
"06/03/2019","22:33","219CR0013048","SUSPICIOUS ACTIVITY","SUSPICIOUS ACTIVITY","117 N HAMILTON","",""
"06/03/2019","23:02","219CR0013049","DISORDERLY CONDUCT","DISORDERLY CONDUCT","58 W PARK","",""
"06/03/2019","23:07","219CR0013050","MEDICAL - EMERGENCY","MEDICAL - EMERGENCY","4655 HARRISON AVE","",""
"06/03/2019","23:34","219CR0013051","T/S","POSSESS DRUG PARAPHERNALIA","PAXSON AND ELIZABETH WARREN NE","ARREST(s) MADE",""
"06/03/2019","23:35","219CR0013052","CITIZEN AID","CITIZEN AID","400 S CLARK ST","",""
"06/03/2019","23:42","219CR0013053","DISTURBANCE-NOISE","DISTURBANCE-NOISE","2015 WALNUT","",""
"06/04/2019","00:10","219CR0013054","SUSPICIOUS ACTIVITY","SUSPICIOUS ACTIVITY","431 N WYOMING","",""
"06/04/2019","00:22","219CR0013055","DISTURBANCE","DISTURBANCE","FRONT AND MONTANA","",""
"06/04/2019","01:37","219CR0013056","ASSIST OTHER AGENCY","ASSIST OTHER AGENCY","626 W GALENA ST APT A","",""
"06/04/2019","01:57","219CR0013057","OPEN BUILDING","OPEN BUILDING","224 S WYOMING ST","",""
"06/04/2019","02:05","219CR0013058","FIRE - STRUCTURE","FIRE - STRUCTURE","111 W BROADWAY","",""
"06/04/2019","02:11","219CR0013059","RESTRAINING ORDER VIOLATION","VIOLATION OF PROTECTION ORDER","845 LEWISHON","",""
"06/04/2019","02:16","219CR0013060","ALARM - BURGLARY","ALARM - BURGLARY","************","",""
"06/04/2019","02:27","219CR0013061","BUSINESS CHECK","BUSINESS CHECK","531 S MONTANA","",""
"06/04/2019","05:33","219CR0013062","SUSPICIOUS ACTIVITY","SUSPICIOUS ACTIVITY","5100 S WARREN TRLR 13","",""
"06/04/2019","05:54","219CR0013063","T/S","T/S @ ","","",""
"06/04/2019","06:39","219CR0013064","SUSPICIOUS ACTIVITY","SUSPICIOUS ACTIVITY","5100 WARREN","",""
"06/04/2019","06:53","219CR0013065","THEFT","THEFT","1355 SCHLEY ST","",""
"06/04/2019","07:20","219CR0013066","DISTURBANCE","DISTURBANCE","1508 SILVER BOW HOMES","",""
 

BSB police report ending June 3, 2019

"05/31/2019","00:01","219CR0012648","T/S","DRIVE WHILE SUSP. OR REVOKED","HOBSON AND MARYLAND","ARREST(s) MADE",""
"05/31/2019","00:12","219CR0012649","BUSINESS CHECK","BUSINESS CHECK","2544 HARRISON LISACS TRI STOP","",""
"05/31/2019","00:16","219CR0012650","UNWANTED PERSON","UNWANTED PERSON","************","",""
"05/31/2019","00:31","219CR0012651","T/S","T/S","BUSCH ST AND YALE ST","",""
"05/31/2019","01:12","219CR0012652","MEDICAL - EMERGENCY","MEDICAL - EMERGENCY","55 BASIN CREEK RD","",""
"05/31/2019","02:43","219CR0012653","SUSPICIOUS ACTIVITY","CRIMINAL TRESPASS TO PROPERTY","1718 YALE","ARREST(s) MADE",""
"05/31/2019","03:04","219CR0012654","T/S","T/S","1900 BLK DEWEY BLVD","",""
"05/31/2019","04:05","219CR0012655","SUSPICIOUS ACTIVITY","SUSPICIOUS ACTIVITY","200 BLK NINE MILE RD","",""
"05/31/2019","05:00","219CR0012656","DISTURBANCE-NOISE","DISTURBANCE-NOISE","DUNN AVE AND DALY ST","",""
"05/31/2019","05:47","219CR0012657","ALARM - BURGLARY","ALARM - BURGLARY","************","",""
"05/31/2019","06:39","219CR0012658","MEDICAL - EMERGENCY","MEDICAL - EMERGENCY","2921 MAMMOTH DR","",""
"05/31/2019","06:47","219CR0012659","SUSPICIOUS ACTIVITY","POSSESS DRUG PARAPHERNALIA","1731 WALL ST","ARREST(s) MADE",""
"05/31/2019","07:05","219CR0012660","CIVIL PAPER SERVICE","CIVIL PAPER SERVICE","115 1/2 S WASHINGTON","",""
"05/31/2019","07:26","219CR0012661","ACCIDENT","ACCIDENT","3900 BLK WYNNE","",""
"05/31/2019","08:04","219CR0012662","ACCIDENT","ACCIDENT","MONTANA AND IRON","",""
"05/31/2019","08:11","219CR0012663","ACCIDENT","CARELESS DRIVING","CLARK AND MERCURY","",""
"05/31/2019","08:34","219CR0012664","STOLEN VEHICLE","MOTOR VEHICLE THEFT","1055 DURANT CANYON RD","ARREST(s) MADE",""
"05/31/2019","09:22","219CR0012665","DISTURBANCE","DISTURBANCE","2700 BLK ELM","",""
"05/31/2019","09:42","219CR0012666","MEDICAL - EMERGENCY","MEDICAL - EMERGENCY","1618 ELM","",""
"05/31/2019","09:44","219CR0012667","MEDICAL - EMERGENCY","MEDICAL - EMERGENCY","312 W BROADWAY","",""
"05/31/2019","09:45","219CR0012668","UNWANTED PERSON","UNWANTED PERSON","************","",""
"05/31/2019","09:50","219CR0012669","MEDICAL - EMERGENCY","MEDICAL - EMERGENCY","2704 SILVER BOW BLVD","",""
"05/31/2019","09:57","219CR0012671","HIT AND RUN","HIT AND RUN, UNATTENDED VEHICL","201 E FRONT","",""
"05/31/2019","09:58","219CR0012670","SUSPICIOUS ACTIVITY","SUSPICIOUS ACTIVITY","I90 MM 215 EB","",""
"05/31/2019","10:15","219CR0012672","HARASSMENT","HARASSMENT","","",""
"05/31/2019","10:15","219CR0012673","ABANDONED VEHICLE","ABANDONED VEHICLE","3000 HANNIBAL ST","",""
"05/31/2019","10:44","219CR0012674","MEDICAL - EMERGENCY","MEDICAL - EMERGENCY","651 W GRANITE","",""
"05/31/2019","10:56","219CR0012675","MEDICAL - EMERGENCY","MEDICAL - EMERGENCY","2630 S COLORADO","",""
"05/31/2019","10:57","219CR0012676","VEHICLE INSPECTION","VEHICLE INSPECTION","15 E FREMONT ST","",""
"05/31/2019","11:12","219CR0012677","WELFARE CHECK","WELFARE CHECK","605 S IDAHO","",""
"05/31/2019","11:19","219CR0012678","CIVIL PAPER SERVICE","CIVIL PAPER SERVICE","712 E FRONT ST","",""
"05/31/2019","11:22","219CR0012679","CIVIL PAPER SERVICE","CIVIL PAPER SERVICE","3400 HILL #2002","",""
"05/31/2019","11:29","219CR0012680","CIVIL PAPER SERVICE","CIVIL PAPER SERVICE","2035 ELM","",""
"05/31/2019","11:38","219CR0012681","WANTED PERSON","WANTED PERSON","************","",""
"05/31/2019","11:42","219CR0012682","LED BUSINESS","LED BUSINESS","BSB GUN RANGE","",""
"05/31/2019","11:49","219CR0012684","MISSING PERSON","MISSING PERSON","************","",""
"05/31/2019","11:50","219CR0012683","CITIZEN AID","CITIZEN AID","1855 DEWEY BLVD","",""
"05/31/2019","12:05","219CR0012685","DETENTION BUSINESS","DETENTION BUSINESS","************","",""
"05/31/2019","12:39","219CR0012686","ALARM - BURGLARY","ALARM - BURGLARY","************","",""
"05/31/2019","12:48","219CR0012687","SUSPICIOUS ACTIVITY","SUSPICIOUS ACTIVITY","2114 SILVERBOW BLVD","",""
"05/31/2019","12:52","219CR0012688","ALARM - FIRE","ALARM - FIRE","1200 STEELE ST","",""
"05/31/2019","13:05","219CR0012689","ATL","ATL","701 DEWEY BLVD US POST OFFICE","",""
"05/31/2019","13:12","219CR0012690","DETENTION BUSINESS","DETENTION BUSINESS","************","",""
"05/31/2019","13:15","219CR0012691","ATL","ATL","700 BLK DEWEY BLVD","",""
"05/31/2019","13:26","219CR0012692","HARASSMENT","HARASSMENT","HELENA","",""
"05/31/2019","13:32","219CR0012693","MEDICAL - EMERGENCY","MEDICAL - EMERGENCY","PARK AND DAKOTA","",""
"05/31/2019","13:37","219CR0012694","ABANDONED VEHICLE","ABANDONED VEHICLE","WEST OF MT TECH CAMPUS","",""
"05/31/2019","13:50","219CR0012695","WANTED PERSON","WANTED PERSON","************","",""
"05/31/2019","13:54","219CR0012696","CIVIL PAPER SERVICE","CIVIL PAPER SERVICE","1813 WILSON","",""
"05/31/2019","13:57","219CR0012697","THEFT","THEFT","3201 KEOKUK","",""
"05/31/2019","14:09","219CR0012698","DETENTION BUSINESS","DETENTION BUSINESS","************","",""
"05/31/2019","14:19","219CR0012699","ACCIDENT","ACCIDENT","2900 BLK BUSCH AVE","",""
"05/31/2019","14:26","219CR0012700","BUSINESS CHECK","BUSINESS CHECK","58 W PARK","",""
"05/31/2019","14:30","219CR0012701","ANIMAL COMPLAINT","ANIMAL COMPLAINT","726 N MONTANA ST","",""
"05/31/2019","14:31","219CR0012702","DETENTION BUSINESS","DETENTION BUSINESS","************","",""
"05/31/2019","14:33","219CR0012703","ALARM - FIRE","ALARM - FIRE","3701 ELIZ WARREN BIG SKY SENIO","",""
"05/31/2019","14:34","219CR0012705","ALARM - FIRE","ALARM - FIRE","","",""
"05/31/2019","14:34","219CR0012704","MEDICAL - EMERGENCY","MEDICAL - EMERGENCY","207 W PARK ST #5","",""
"05/31/2019","14:41","219CR0012706","HARASSMENT","HARASSMENT","3099 HARRISON","",""
"05/31/2019","14:42","219CR0012707","THEFT","THEFT","BUTTE","",""
"05/31/2019","14:46","219CR0012708","ANIMAL COMPLAINT","ANIMAL COMPLAINT","I15 MM 127","",""
"05/31/2019","14:58","219CR0012709","THEFT","THEFT, SHOPLIFT","3901 HARRISON AVE","",""
"05/31/2019","15:07","219CR0012710","ALL OTHER","ALL OTHER","1221 DEWEY","",""
"05/31/2019","15:12","219CR0012711","LOST OR STOLEN PROPERTY","LOST OR STOLEN PROPERTY","1511 SILVERBOW HOMES","",""
"05/31/2019","15:45","219CR0012712","PARKING COMPLAINT","PARKING COMPLAINT","1100 BLK ATLANTIC","",""
"05/31/2019","15:47","219CR0012713","MEDICAL - ASSIST","MEDICAL - ASSIST","************","",""
"05/31/2019","15:52","219CR0012714","CIVIL PAPER SERVICE","CIVIL PAPER SERVICE","1813 WILSON","",""
"05/31/2019","15:57","219CR0012715","FRAUD","DECEPTIVE PRACT - CREDIT CARD","323 S MONTANA APT1","",""
"05/31/2019","16:02","219CR0012716","WELFARE CHECK","WELFARE CHECK","116 W PARK","",""
"05/31/2019","16:15","219CR0012717","HARASSMENT","HARASSMENT","3135 MANTLE","",""
"05/31/2019","16:41","219CR0012718","T/S","T/S @ MONTANA ST AND ALUMINUM ST","MONTANA ST AND ALUMINUM ST","",""
"05/31/2019","16:51","219CR0012719","ANIMAL COMPLAINT","ANIMAL COMPLAINT","2636 YALE","",""
"05/31/2019","16:52","219CR0012720","WELFARE CHECK","WELFARE CHECK","220 N WYOMING #120","",""
"05/31/2019","16:53","219CR0012721","T/S","T/S @ GRAND AND GEORGIA","GRAND AND GEORGIA","",""
"05/31/2019","16:55","219CR0012722","T/S","T/S @ MONTANA ST AND OXFORD ST","MONTANA ST AND OXFORD ST","",""
"05/31/2019","17:08","219CR0012723","DISTURBANCE","DISTURBANCE","2518 PARROT","",""
"05/31/2019","17:16","219CR0012724","T/S","T/S @ DEWEY AND OREGON","DEWEY AND OREGON","",""
"05/31/2019","17:18","219CR0012725","SUSPICIOUS ACTIVITY","SUSPICIOUS ACTIVITY","CHESTER STEELE PARK","",""
"05/31/2019","17:26","219CR0012726","ASSAULT","ASSAULT","************","",""
"05/31/2019","17:30","219CR0012727","T/S","T/S @ SCHLEY AND OREGON","SCHLEY AND OREGON","",""
"05/31/2019","17:35","219CR0012728","JUVENILE MISC","JUVENILE MISC","************","",""
"05/31/2019","17:44","219CR0012729","THEFT","THEFT, SHOPLIFT","3901 HARRISON WALMART","",""
"05/31/2019","17:50","219CR0012730","HARASSMENT","HARASSMENT","1504 SILVERBOW HOMES","",""
"05/31/2019","17:54","219CR0012731","SUSPICIOUS ACTIVITY","SUSPICIOUS ACTIVITY","WEST END OF NORTH PARKMONT","",""
"05/31/2019","18:16","219CR0012732","CIVIL STANDBY","CIVIL STANDBY","842 COLORADO ST","",""
"05/31/2019","18:35","219CR0012733","ANIMAL COMPLAINT","ANIMAL COMPLAINT","I15 MM 127","",""
"05/31/2019","18:49","219CR0012734","MEDICAL - EMERGENCY","MEDICAL - EMERGENCY","1571 ELM","",""
"05/31/2019","18:50","219CR0012735","UNWANTED PERSON","UNWANTED PERSON","************","",""
"05/31/2019","18:56","219CR0012736","TRAFFIC","TRAFFIC","3905 HANCOCK","",""
"05/31/2019","19:06","219CR0012737","ALARM - BURGLARY","ALARM - BURGLARY","************","",""
"05/31/2019","19:07","219CR0012738","WELFARE CHECK","WELFARE CHECK","1501 OREGON","",""
"05/31/2019","19:09","219CR0012739","JUVENILE MISC","JUVENILE MISC","************","",""
"05/31/2019","19:22","219CR0012740","WELFARE CHECK","WELFARE CHECK","3901 HARRISON AVE","",""
"05/31/2019","19:29","219CR0012741","JUVENILE MISC","JUVENILE MISC","************","",""
"05/31/2019","19:43","219CR0012742","T/S","T/S @ 2119 AMHERST","2119 AMHERST","",""
"05/31/2019","20:11","219CR0012743","T/S","T/S @ KEOKUK ST AND HANCOCK ST","KEOKUK ST AND HANCOCK ST","",""
"05/31/2019","20:16","219CR0012744","CIVIL PAPER SERVICE","CIVIL PAPER SERVICE","1957 OREGON","",""
"05/31/2019","20:21","219CR0012745","T/S","T/S @ HANNIBAL AND HANCOCK","HANNIBAL AND HANCOCK","",""
"05/31/2019","20:35","219CR0012746","CIVIL PAPER SERVICE","CIVIL PAPER SERVICE","3507 S WARREN","",""
"05/31/2019","20:43","219CR0012747","THEFT","THEFT, SHOPLIFT","3901 HARRISON AVE","ARREST(s) MADE",""
"05/31/2019","21:30","219CR0012749","DISTURBANCE-NOISE","DISTURBANCE-NOISE","MOUNT CON","",""
"05/31/2019","21:34","219CR0012750","WELFARE CHECK","WELFARE CHECK","842 COLORADO ST","",""
"05/31/2019","21:43","219CR0012751","DISTURBANCE-NOISE","DISTURBANCE-NOISE","1825 BANKS AVE","",""
"05/31/2019","21:47","219CR0012752","SUSPICIOUS ACTIVITY","SUSPICIOUS ACTIVITY","1200 BLK N MAIN ST","",""
"05/31/2019","22:05","219CR0012753","ALARM - BURGLARY","ALARM - BURGLARY","************","",""
"05/31/2019","22:07","219CR0012754","ALARM - BURGLARY","ALARM - BURGLARY","************","",""
"05/31/2019","22:12","219CR0012755","FIREWORKS COMPLAINT","FIREWORKS COMPLAINT","1800 BLK FLORIDA","",""
"05/31/2019","22:22","219CR0012756","THEFT","THEFT, SHOPLIFT","2500 MASSACHUSETTS AVE","",""
"05/31/2019","22:27","219CR0012757","FIRE - OTHER","FIRE - OTHER","901 HORNET","",""
"05/31/2019","22:30","219CR0012758","JUVENILE MISC","JUVENILE MISC","************","",""
"05/31/2019","22:37","219CR0012759","ATL","ATL","2900 BLK HILL","",""
"05/31/2019","22:42","219CR0012760","ANIMAL COMPLAINT","ANIMAL COMPLAINT","1007 LEXINGTON","",""
"05/31/2019","22:42","219CR0012761","JUVENILE MISC","JUVENILE MISC","************","",""
"05/31/2019","22:46","219CR0012762","JUVENILE RUNAWAY","JUVENILE RUNAWAY","************","",""
"05/31/2019","22:47","219CR0012763","T/S","T/S","FARRAGUT AND HARVARD","",""
"05/31/2019","23:03","219CR0012764","T/S","T/S","PARK AND DAKOTA","",""
"05/31/2019","23:15","219CR0012765","JUVENILE MISC","JUVENILE MISC","************","",""
"05/31/2019","23:32","219CR0012766","SUSPICIOUS ACTIVITY","SUSPICIOUS ACTIVITY","ELIZABETH WARREN AND GREEN LAN","",""
"05/31/2019","23:33","219CR0012767","MEDICAL - EMERGENCY","MEDICAL - EMERGENCY","BROADWAY AND HAMILTON","",""
"05/31/2019","23:49","219CR0012768","T/S","T/S","1900 BLK HARRISON AVE","",""
"06/01/2019","00:37","219CR0012769","DISTURBANCE","DISTURBANCE","1800 BLK PHILLIPS AVE","",""
"06/01/2019","00:39","219CR0012770","VANDALISM/CRIMINAL MISCHIEF","VANDALISM/CRIMINAL MISCHIEF","1008 DELAWARE","",""
"06/01/2019","00:48","219CR0012771","MEDICAL - EMERGENCY","MEDICAL - EMERGENCY","505 SILVERBOW HOMES","",""
"06/01/2019","01:12","219CR0012772","DISTURBANCE-NOISE","DISTURBANCE-NOISE","1149 ANTIMONY ST","",""
"06/01/2019","01:27","219CR0012773","DISTURBANCE","POSSESSION OF DANGEROUS DRUGS","313 W QUARTZ","ARREST(s) MADE",""
"06/01/2019","01:33","219CR0012774","WANTED PERSON","CRIMINAL CONTEMPT","FRONT AND OREGON","ARREST(s) MADE",""
"06/01/2019","02:00","219CR0012775","DISTURBANCE","DISTURBANCE","323 S MONTANA APT # 6","",""
"06/01/2019","02:06","219CR0012776","SUSPICIOUS ACTIVITY","SUSPICIOUS ACTIVITY","10 BLK W PARK","",""
"06/01/2019","02:12","219CR0012777","WELFARE CHECK","WELFARE CHECK","1831 PHILLIPS","",""
"06/01/2019","02:32","219CR0012778","SUSPICIOUS ACTIVITY","SUSPICIOUS ACTIVITY","306 W ALUMINUM ST","",""
"06/01/2019","02:41","219CR0012779","SUSPICIOUS ACTIVITY","AGGRAVATED DUI","2610 HARRISON AVE","ARREST(s) MADE",""
"06/01/2019","05:18","219CR0012780","ALARM - BURGLARY","ALARM - BURGLARY","************","",""
"06/01/2019","05:38","219CR0012781","ALARM - BURGLARY","ALARM - BURGLARY","************","",""
"06/01/2019","06:15","219CR0012782","MEDICAL - EMERGENCY","MEDICAL - EMERGENCY","50 W BROADWAY","",""
"06/01/2019","06:53","219CR0012783","MEDICAL - EMERGENCY","MEDICAL - EMERGENCY","220 N WYOMING","",""
"06/01/2019","07:01","219CR0012784","HIT AND RUN","CRIMINAL MISCHIEF","1314 ADAMS","",""
"06/01/2019","07:14","219CR0012785","MEDICAL - EMERGENCY","MEDICAL - EMERGENCY","155 W QUARTZ","",""
"06/01/2019","08:15","219CR0012786","MEDICAL - EMERGENCY","MEDICAL - EMERGENCY","601 PLACER ST","",""
"06/01/2019","08:32","219CR0012787","WELFARE CHECK","WELFARE CHECK","805 7TH ST","",""
"06/01/2019","09:03","219CR0012788","DRUGS","DRUGS","************","",""
"06/01/2019","09:07","219CR0012789","FIRE - OTHER","FIRE - OTHER","1530 B ST","",""
"06/01/2019","09:21","219CR0012790","CIVIL PAPER SERVICE","CIVIL PAPER SERVICE","1018 S UTAH","",""
"06/01/2019","09:21","219CR0012791","ANIMAL COMPLAINT","ANIMAL COMPLAINT","CASEY AND OREGON","",""
"06/01/2019","09:25","219CR0012792","CIVIL PAPER SERVICE","CIVIL PAPER SERVICE","641 S UTAH","",""
"06/01/2019","09:26","219CR0012793","LED BUSINESS","LED BUSINESS","1700 CIVIC CENTER RD","",""
"06/01/2019","09:41","219CR0012794","CITIZEN AID","CITIZEN AID","189 TRINITY LOOP RD","",""
"06/01/2019","10:14","219CR0012795","VANDALISM/CRIMINAL MISCHIEF","VANDALISM/CRIMINAL MISCHIEF","1367 SUNRISE","",""
"06/01/2019","10:19","219CR0012796","VANDALISM/CRIMINAL MISCHIEF","CRIMINAL MISCHIEF","3109 YALE","",""
"06/01/2019","10:26","219CR0012797","JUVENILE RUNAWAY","UNGOVERNABLE JUVENILE","1837 GARRISON","ARREST(s) MADE",""
"06/01/2019","10:37","219CR0012798","THEFT","THEFT, ALL OTHERS","23 E LAPLATTE","",""
"06/01/2019","10:54","219CR0012799","THEFT","THEFT","623 W IRON","",""
"06/01/2019","11:02","219CR0012800","ACCIDENT","HIT AND RUN, UNATTENDED VEHICL","325 S EXCELSIOR","",""
"06/01/2019","11:12","219CR0012801","ACCIDENT-MHP","ACCIDENT-MHP","HIGHWAY 2 AND ALBANY","",""
"06/01/2019","11:22","219CR0012802","FOUND PROPERTY","FOUND PROPERTY","************","",""
"06/01/2019","11:44","219CR0012803","SUSPICIOUS ACTIVITY","SUSPICIOUS ACTIVITY","PRINCETON AND MEADE","",""
"06/01/2019","11:51","219CR0012804","HARASSMENT","HARASSMENT","206 E SECOND","",""
"06/01/2019","11:58","219CR0012805","ATL","ATL","2500 BLK HARRISON AVE","",""
"06/01/2019","12:02","219CR0012806","THEFT","THEFT","225 N ALASKA ST","",""
"06/01/2019","12:03","219CR0012807","THEFT","THEFT FROM MOTOR VEHICLE","1003 S MONTANA KXLF TV","",""
"06/01/2019","12:27","219CR0012808","CIVIL STANDBY","CIVIL STANDBY","322 W BROADWAY","",""
"06/01/2019","12:36","219CR0012809","ALL OTHER","ALL OTHER","79 E BENNETT","",""
"06/01/2019","12:38","219CR0012810","DISTURBANCE","DISTURBANCE","207 W PARK #14","",""
"06/01/2019","12:41","219CR0012812","LED BUSINESS","LED BUSINESS","UPTOWN BUTTE","",""
"06/01/2019","12:41","219CR0012811","MEDICAL - ASSIST","MEDICAL - ASSIST","************","",""
"06/01/2019","12:47","219CR0012813","T/S","T/S","1000 BLK S MONTANA ST","",""
"06/01/2019","13:27","219CR0012814","STOLEN VEHICLE","STOLEN VEHICLE","1431 MOTOR VIEW RD","",""
"06/01/2019","13:53","219CR0012815","ALARM - BURGLARY","ALARM - BURGLARY","************","",""
"06/01/2019","13:59","219CR0012816","WELFARE CHECK","WELFARE CHECK","3100 HARRISON AVE","",""
"06/01/2019","14:11","219CR0012817","THEFT","THEFT","3220 HARRISON FIRST CITIZENS","",""
"06/01/2019","14:31","219CR0012818","LED BUSINESS","LED BUSINESS","BSB LED GUN RANGE","",""
"06/01/2019","14:59","219CR0012819","ACCIDENT","ACCIDENT","HARRISON AND HOLMES","",""
"06/01/2019","15:16","219CR0012820","SUSPICIOUS ACTIVITY","SUSPICIOUS ACTIVITY","SENTRY STORAGE 3947 PAXSON","",""
"06/01/2019","15:20","219CR0012821","THEFT","THEFT","2500 MASSACHUSETTS SAFEWAY MA","",""
"06/01/2019","15:26","219CR0012822","ALL OTHER","ALL OTHER","3260 ST ANN ST","",""
"06/01/2019","15:30","219CR0012823","BURGLARY","BURGLARY, RESIDENCE","1609 YALE AVE","",""
"06/01/2019","15:31","219CR0012824","JUVENILE RUNAWAY","UNGOVERNABLE JUVENILE","115 S WASHINGTON","ARREST(s) MADE",""
"06/01/2019","16:00","219CR0012825","SUSPICIOUS ACTIVITY","SUSPICIOUS ACTIVITY","2100 BLK OTTAWA","",""
"06/01/2019","16:10","219CR0012826","ALARM - BURGLARY","ALARM - BURGLARY","************","",""
"06/01/2019","16:15","219CR0012827","MEDICAL - EMERGENCY","MEDICAL - EMERGENCY","3260 ST ANN ST","",""
"06/01/2019","16:20","219CR0012828","SUSPICIOUS ACTIVITY","AGGRAVATED DUI","3000 BLK CONTINENTAL DR","ARREST(s) MADE",""
"06/01/2019","16:28","219CR0012829","DISTURBANCE","DISTURBANCE","2860 SILVERBOW BLVD","",""
"06/01/2019","16:33","219CR0012830","ATL","ATL","2702 WALNUT ST","",""
"06/01/2019","16:44","219CR0012831","SUSPICIOUS ACTIVITY","SUSPICIOUS ACTIVITY","I15 EXIT 122 WB ONRAMP","",""
"06/01/2019","16:51","219CR0012832","MC COMPLAINT","MC COMPLAINT","2800 BLK FLORAL BLVD","",""
"06/01/2019","16:53","219CR0012833","JUVENILE MISC","JUVENILE MISC","************","",""
"06/01/2019","17:06","219CR0012834","FRAUD","FORGERY/COUNTERFEIT","1000 GRIZZLY TRAIL TOWN PUMP","",""
"06/01/2019","17:08","219CR0012835","RESTRAINING ORDER VIOLATION","RESTRAINING ORDER VIOLATION","************","",""
"06/01/2019","17:19","219CR0012836","UNWANTED PERSON","UNWANTED PERSON","************","",""
"06/01/2019","17:23","219CR0012837","JUVENILE MISC","JUVENILE MISC","************","",""
"06/01/2019","17:42","219CR0012838","DISTURBANCE","DISTURBANCE","1959 FLORENCE","",""
"06/01/2019","17:46","219CR0012839","HARASSMENT","HARASSMENT","1504 SILVERBOW HOMES","",""
"06/01/2019","18:16","219CR0012840","ALARM - BURGLARY","ALARM - BURGLARY","************","",""
"06/01/2019","18:52","219CR0012841","DISTURBANCE","DISTURBANCE","1571 ELM ST","",""
"06/01/2019","19:15","219CR0012842","SUSPICIOUS ACTIVITY","SUSPICIOUS ACTIVITY","200 ROW SILVERBOW HOMES","",""
"06/01/2019","20:25","219CR0012843","DISTURBANCE","DISTURBANCE","CLARK AND PARK","",""
"06/01/2019","20:35","219CR0012844","ALARM - FIRE","ALARM - FIRE","4655 HARRISON AVE","",""
"06/01/2019","21:12","219CR0012845","CITIZEN AID","CITIZEN AID","225 N ALASKA","",""
"06/01/2019","21:13","219CR0012846","WELFARE CHECK","WELFARE CHECK","1736 LONGFELLOW #1","",""
"06/01/2019","21:17","219CR0012847","VANDALISM/CRIMINAL MISCHIEF","DISORDERLY CONDUCT","4655 HARRISON AVE","",""
"06/01/2019","21:26","219CR0012848","SUSPICIOUS ACTIVITY","SUSPICIOUS ACTIVITY","500 ROW SILVERBOW HOMES","",""
"06/01/2019","21:30","219CR0012849","THEFT","THEFT","2500 MASSACHUSETTS AVE","",""
"06/01/2019","21:34","219CR0012850","SUSPICIOUS ACTIVITY","SUSPICIOUS ACTIVITY","2845 ST ANN ST","",""
"06/01/2019","21:50","219CR0012851","JUVENILE MISC","JUVENILE MISC","************","",""
"06/01/2019","21:54","219CR0012852","ATL","ATL","MONTANA AND SECOND","",""
"06/01/2019","22:00","219CR0012853","DISTURBANCE-NOISE","DISTURBANCE-NOISE","2513 PINE ST","",""
"06/01/2019","22:14","219CR0012854","DISTURBANCE","DISTURBANCE","1003 MARYLAND AVE","",""
"06/01/2019","22:25","219CR0012855","DISTURBANCE","DISTURBANCE","165 TRINITY LOOP","",""
"06/01/2019","22:38","219CR0012856","T/S","T/S","CONTINENTAL AND WHARTON","",""
"06/01/2019","22:47","219CR0012857","SUSPICIOUS ACTIVITY","SUSPICIOUS ACTIVITY","2945 BURKE LANE","",""
"06/01/2019","23:06","219CR0012858","MEDICAL - EMERGENCY","MEDICAL - EMERGENCY","3435 PARKWAY ST","",""
"06/01/2019","23:16","219CR0012859","VANDALISM/CRIMINAL MISCHIEF","VANDALISM/CRIMINAL MISCHIEF","130 RENZ DR","",""
"06/01/2019","23:32","219CR0012860","ATL","ATL","I90 CONTINENTAL ON RAMP WB","",""
"06/01/2019","23:41","219CR0012861","SUSPICIOUS ACTIVITY","SUSPICIOUS ACTIVITY","2900 BLK OF HARRISON AVE","",""
"06/01/2019","23:44","219CR0012863","T/S","T/S","2801 HARRISON ZIP TRIP","",""
"06/01/2019","23:44","219CR0012862","T/S","T/S @ ","","",""
"06/01/2019","23:45","219CR0012864","BUSINESS CHECK","BUSINESS CHECK","531 S MONTANA","",""
"06/01/2019","23:48","219CR0012865","SUSPICIOUS ACTIVITY","SUSPICIOUS ACTIVITY","1603 SILVER BOW HOMES","",""
"06/01/2019","23:55","219CR0012866","MEDICAL - EMERGENCY","MEDICAL - EMERGENCY","3033 BUSCH #5","",""
"06/02/2019","00:05","219CR0012867","BUSINESS CHECK","BUSINESS CHECK","45 W GALENA ST","",""
"06/02/2019","00:27","219CR0012868","WELFARE CHECK","WELFARE CHECK","1436 EVANS AVE","",""
"06/02/2019","00:46","219CR0012869","WANTED PERSON","WANTED PERSON","************","",""
"06/02/2019","00:47","219CR0012870","WANTED PERSON","WANTED PERSON","************","",""
"06/02/2019","00:47","219CR0012871","SUICIDE ATTEMPT/THREAT","SUICIDE ATTEMPT/THREAT","************","",""
"06/02/2019","01:39","219CR0012872","RESTRAINING ORDER VIOLATION","VIOLATION OF PROTECTION ORDER","845 LEWISOHN","",""
"06/02/2019","01:45","219CR0012873","UNWANTED PERSON","UNWANTED PERSON","************","",""
"06/02/2019","02:06","219CR0012874","ALARM - BURGLARY","ALARM - BURGLARY","************","",""
"06/02/2019","02:21","219CR0012875","SUSPICIOUS ACTIVITY","SUSPICIOUS ACTIVITY","2 E GALENA","",""
"06/02/2019","03:12","219CR0012876","DISTURBANCE","DISTURBANCE","1620 DEWEY","",""
"06/02/2019","04:03","219CR0012877","WELFARE CHECK","WELFARE CHECK","2100 PHILLIPS AVE","",""
"06/02/2019","04:11","219CR0012878","SUSPICIOUS ACTIVITY","SUSPICIOUS ACTIVITY","226 W SILVER ST APT 24","",""
"06/02/2019","04:46","219CR0012879","ASSAULT","PFMA STRANGULATION","1122 CALIFORNIA AVE","",""
"06/02/2019","05:09","219CR0012880","MEDICAL - EMERGENCY","MEDICAL - EMERGENCY","1125 MAIN ST APT 115","",""
"06/02/2019","06:22","219CR0012881","T/S","CRIMINAL CONTEMPT","300 BLK S DAKOTA","ARREST(s) MADE",""
"06/02/2019","06:49","219CR0012882","THEFT","THEFT","2407 HARRISON","",""
"06/02/2019","07:49","219CR0012883","CIVIL PAPER SERVICE","CIVIL PAPER SERVICE","2035 ELM","",""
"06/02/2019","07:50","219CR0012884","CIVIL PAPER SERVICE","CIVIL PAPER SERVICE","17 S WASHINGTON","",""
"06/02/2019","07:57","219CR0012885","CIVIL PAPER SERVICE","CIVIL PAPER SERVICE","1018 UTAH","",""
"06/02/2019","08:00","219CR0012886","CIVIL PAPER SERVICE","CIVIL PAPER SERVICE","1413 BROWNING","",""
"06/02/2019","08:05","219CR0012887","CIVIL PAPER SERVICE","CIVIL PAPER SERVICE","320 W BROADWAY APT B","",""
"06/02/2019","08:14","219CR0012888","CIVIL PAPER SERVICE","CIVIL PAPER SERVICE","643 S UTAH","",""
"06/02/2019","08:20","219CR0012889","CIVIL PAPER SERVICE","CIVIL PAPER SERVICE","662 S WASHINGTON","",""
"06/02/2019","08:33","219CR0012890","SUSPICIOUS ACTIVITY","SUSPICIOUS ACTIVITY","1004 GRIZZLY TRAIL","",""
"06/02/2019","09:51","219CR0012891","MEDICAL - EMERGENCY","MEDICAL - EMERGENCY","1825 GAYLORD","",""
"06/02/2019","09:56","219CR0012892","VANDALISM/CRIMINAL MISCHIEF","CRIMINAL MISCHIEF","305 W GRANITE ST","",""
"06/02/2019","10:09","219CR0012893","DISTURBANCE","DISTURBANCE","600 BLK S MONTANA W ALLEY","",""
"06/02/2019","10:20","219CR0012894","T/S","T/S","MONTANA ST AND IRON","",""
"06/02/2019","10:34","219CR0012895","BURGLARY","BURGLARY, RESIDENCE","120 N IDAHO","",""
"06/02/2019","10:36","219CR0012896","SUSPICIOUS ACTIVITY","SUSPICIOUS ACTIVITY","ANSELMO MINE YARD","",""
"06/02/2019","10:42","219CR0012897","MEDICAL - EMERGENCY","MEDICAL - EMERGENCY","928 COLORADO","",""
"06/02/2019","10:54","219CR0012898","HIT AND RUN","FAIL TO ID, SELF AND VEHICLE","2301 HARRISON","",""
"06/02/2019","11:13","219CR0012899","DRUGS","DRUGS","************","",""
"06/02/2019","11:19","219CR0012900","JUVENILE RUNAWAY","UNGOVERNABLE JUVENILE","1837 GARRISON","ARREST(s) MADE",""
"06/02/2019","11:29","219CR0012901","T/S","T/S","I15 SB 127","",""
"06/02/2019","11:35","219CR0012902","JUVENILE MISC","JUVENILE MISC","************","",""
"06/02/2019","11:54","219CR0012903","CIVIL PAPER SERVICE","CIVIL PAPER SERVICE","2122 ARGYLE","",""
"06/02/2019","12:01","219CR0012904","CIVIL PAPER SERVICE","CIVIL PAPER SERVICE","2409 WALNUT","",""
"06/02/2019","12:04","219CR0012905","T/S","T/S","4800 BLK HARRISON AV","",""
"06/02/2019","12:15","219CR0012906","SUSPICIOUS ACTIVITY","SUSPICIOUS ACTIVITY","2000 DEWEY BLVD DOTTYS CASINO","",""
"06/02/2019","12:39","219CR0012907","LED BUSINESS","LED BUSINESS","UPTOWN FOOT PATROL","",""
"06/02/2019","12:44","219CR0012908","ALARM - FIRE","ALARM - FIRE","1800 STUART","",""
"06/02/2019","13:35","219CR0012909","T/S","DRIVING W/OUT VALID D/L","MONTANA ST AND IRON","",""
"06/02/2019","13:42","219CR0012910","T/S","T/S","ARIZONA AND THIRD","",""
"06/02/2019","13:46","219CR0012911","FIRE- GAS ODOR","FIRE- GAS ODOR","42 WATHENA","",""
"06/02/2019","13:56","219CR0012912","MEDICAL - EMERGENCY","MEDICAL - EMERGENCY","155 W QUARTZ BSB DETENTION CEN","",""
"06/02/2019","14:10","219CR0012913","SUSPICIOUS ACTIVITY","SUSPICIOUS ACTIVITY","CASEY AND UTAH","",""
"06/02/2019","14:17","219CR0012914","T/S","T/S","2324 S MONTANA TOWN PUMP","",""
"06/02/2019","14:26","219CR0012915","T/S","T/S","PLACER AND SECOND","",""
"06/02/2019","14:29","219CR0012916","T/S","T/S","1600 BLK DEWEY","",""
"06/02/2019","14:38","219CR0012917","UNWANTED PERSON","UNWANTED PERSON","************","",""
"06/02/2019","14:59","219CR0012918","CIVIL STANDBY","CIVIL STANDBY","2909 CARTER","",""
"06/02/2019","15:11","219CR0012919","ACCIDENT- INJURY(MHP)","ACCIDENT- INJURY(MHP)","GERMAN GULCH RD","",""
"06/02/2019","15:12","219CR0012920","ACCIDENT","ACCIDENT","MASSACHUSETTS AND OTTAWA","",""
"06/02/2019","15:25","219CR0012921","MEDICAL - EMERGENCY","MEDICAL - EMERGENCY","909 W GALENA","",""
"06/02/2019","15:32","219CR0012922","DISTURBANCE","DISTURBANCE","1919 HARRISON","",""
"06/02/2019","15:44","219CR0012923","THEFT","THEFT","900 BLK E FRONT ST","",""
"06/02/2019","16:29","219CR0012924","SUSPICIOUS ACTIVITY","SUSPICIOUS ACTIVITY","100 GARDENS WAY CONTINENTAL GA","",""
"06/02/2019","16:42","219CR0012925","LOST CHILD","LOST CHILD","************","",""
"06/02/2019","16:53","219CR0012926","SUSPICIOUS ACTIVITY","SUSPICIOUS ACTIVITY","MONTANA ST AND PORPHYRY ST","",""
"06/02/2019","17:04","219CR0012927","T/S","DRIVE WHILE SUSP. OR REVOKED","300 BLK ARIZONA","",""
"06/02/2019","17:08","219CR0012928","DISTURBANCE","DISTURBANCE","3400 HILL #904","",""
"06/02/2019","17:29","219CR0012929","MEDICAL - EMERGENCY","MEDICAL - EMERGENCY","712 S ARIZONA ST SJ PERRY","",""
"06/02/2019","17:38","219CR0012930","MEDICAL - EMERGENCY","MEDICAL - EMERGENCY","155 W QUARTZ","",""
"06/02/2019","17:49","219CR0012931","ALARM - MEDICAL","ALARM - MEDICAL","************","",""
"06/02/2019","18:06","219CR0012932","THEFT","THEFT, SHOPLIFT","2500 MASSACHUSETTS AVE","",""
"06/02/2019","18:26","219CR0012933","WELFARE CHECK","WELFARE CHECK","2114 PINE ST","",""
"06/02/2019","18:38","219CR0012934","DISTURBANCE","DISTURBANCE","2300 BLK PINE ST","",""
"06/02/2019","18:39","219CR0012935","CITIZEN AID","CITIZEN AID","225 N ALASKA","",""
"06/02/2019","19:10","219CR0012936","DISTURBANCE","DISTURBANCE","920 1/2 S COLORADO","",""
"06/02/2019","19:37","219CR0012937","MEDICAL - EMERGENCY","MEDICAL - EMERGENCY","1237 GRIZZLY TRL","",""
"06/02/2019","19:42","219CR0012938","SUSPICIOUS ACTIVITY","SUSPICIOUS ACTIVITY","ELM ST WALKING TRAIL","",""
"06/02/2019","19:51","219CR0012939","ASSIST OTHER AGENCY","ASSIST OTHER AGENCY","I15 MM 130 SB","",""
"06/02/2019","20:38","219CR0012940","DISTURBANCE","DISTURBANCE","207 W PARK ST","",""
"06/02/2019","21:25","219CR0012941","WELFARE CHECK","VIOLATION OF PROTECTION ORDER","16 E GALENA #F","ARREST(s) MADE",""
"06/02/2019","21:28","219CR0012942","DISTURBANCE","DISTURBANCE","323 N JACKSON","",""
"06/02/2019","21:38","219CR0012943","SUSPICIOUS ACTIVITY","SUSPICIOUS ACTIVITY","HOLIDAY INN EXPRESS","",""
"06/02/2019","21:38","219CR0012944","MEDICAL - EMERGENCY","MEDICAL - EMERGENCY","1125 S MAIN APT 115","",""
"06/02/2019","21:56","219CR0012945","UNWANTED PERSON","UNWANTED PERSON","************","",""
"06/02/2019","21:58","219CR0012946","DISTURBANCE","DISTURBANCE","CLINTON AND COLORADO","",""
"06/02/2019","22:06","219CR0012947","CITIZEN AID","CITIZEN AID","225 N ALASKA","",""
"06/02/2019","22:09","219CR0012948","ATL","ATL","400 BLK W SILVER","",""
"06/02/2019","22:10","219CR0012949","ACCIDENT","ACCIDENT","840 S MONTANA HIGHLANDS VET","",""
"06/02/2019","22:28","219CR0012950","VANDALISM/CRIMINAL MISCHIEF","VANDALISM/CRIMINAL MISCHIEF","4500 BLK CONTINENTAL DR","",""
"06/02/2019","22:42","219CR0012951","FIRE - STRUCTURE","FIRE - STRUCTURE","711 SILVER BOW HOMES","",""
"06/02/2019","22:44","219CR0012952","SUSPICIOUS ACTIVITY","SUSPICIOUS ACTIVITY","EMMETT AND GALENA","",""
"06/02/2019","23:02","219CR0012953","ALARM - BURGLARY","ALARM - BURGLARY","************","",""
"06/02/2019","23:02","219CR0012954","T/S","T/S","HARRISON AND CORNELL","",""
"06/02/2019","23:04","219CR0012955","MEDICAL - EMERGENCY","MEDICAL - EMERGENCY","1955 DEWEY BLVD","",""
"06/02/2019","23:15","219CR0012956","T/S","T/S","MONTANA ST AND IRON","",""
"06/02/2019","23:24","219CR0012957","DISTURBANCE","DISTURBANCE","309 S IDAHO","",""
"06/03/2019","00:30","219CR0012958","SUSPICIOUS ACTIVITY","SUSPICIOUS ACTIVITY","200 W SILVER ST","",""
"06/03/2019","00:34","219CR0012959","DISTURBANCE","DISTURBANCE","318 S EXCELSIOR","",""
"06/03/2019","00:45","219CR0012960","SUSPICIOUS ACTIVITY","SUSPICIOUS ACTIVITY","GOLD AND MONTANA","",""
"06/03/2019","01:37","219CR0012961","SUSPICIOUS ACTIVITY","SUSPICIOUS ACTIVITY","2ND AND WARREN","",""
"06/03/2019","02:26","219CR0012962","SUSPICIOUS ACTIVITY","SUSPICIOUS ACTIVITY","1203 HOWARD ST","",""
"06/03/2019","02:34","219CR0012963","MEDICAL - EMERGENCY","MEDICAL - EMERGENCY","323 GRANITE MOUNTAIN ROAD","",""
"06/03/2019","02:48","219CR0012964","T/S","T/S","PLATINUM AND EXCELSIOR","",""
"06/03/2019","03:00","219CR0012965","SUSPICIOUS ACTIVITY","SUSPICIOUS ACTIVITY","111 SILVERBOW HOMES","",""
"06/03/2019","03:11","219CR0012966","ILLEGAL SHOOTING","ILLEGAL SHOOTING","910 EVANS APT B2","",""
"06/03/2019","03:23","219CR0012967","SUSPICIOUS ACTIVITY","SUSPICIOUS ACTIVITY","673 PONY EXPRESS LANE","",""
"06/03/2019","04:09","219CR0012968","UNWANTED PERSON","CRIMINAL TRESPASS TO PROPERTY","3901 HARRISON AVE","ARREST(s) MADE",""
"06/03/2019","05:17","219CR0012969","DISTURBANCE","DISTURBANCE","1300 BLK HARRISON AVE","",""
"06/03/2019","05:22","219CR0012970","T/S","T/S @ 904 UTAH ST / WHALEN TIRE","904 UTAH ST / WHALEN TIRE","",""
"06/03/2019","06:01","219CR0012971","JUVENILE RUNAWAY","UNGOVERNABLE JUVENILE","420 W ALUMINUM","",""
"06/03/2019","06:29","219CR0012973","STOLEN VEHICLE","MOTOR VEHICLE THEFT","2900 HARRISON AVE","",""
"06/03/2019","06:37","219CR0012974","THEFT","THEFT","1 HOLIDAY PARK","",""
"06/03/2019","06:49","219CR0012975","ANIMAL COMPLAINT","ANIMAL COMPLAINT","3703 HARRISON STE B","",""
 

BSB police report ending May 31, 2019

"05/30/2019","00:00","219CR0012552","JUVENILE MISC","JUVENILE MISC","************","",""
"05/30/2019","00:04","219CR0012553","T/S","AGGRAVATED DUI","COBBAN AND CAROLINA","ARREST(s) MADE",""
"05/30/2019","00:12","219CR0012554","SUSPICIOUS ACTIVITY","SUSPICIOUS ACTIVITY","2100 BLK GRAND AVE","",""
"05/30/2019","02:07","219CR0012555","DISTURBANCE","DISTURBANCE","312 SILVER BOW HOMES","",""
"05/30/2019","04:18","219CR0012556","DISTURBANCE","DISTURBANCE","817 S DAKOTA","",""
"05/30/2019","04:30","219CR0012557","WELFARE CHECK","WELFARE CHECK","HARRISON AND I15 E BND ONRAMP","",""
"05/30/2019","05:09","219CR0012558","ALARM - BURGLARY","ALARM - BURGLARY","************","",""
"05/30/2019","05:17","219CR0012559","ALARM - BURGLARY","ALARM - BURGLARY","************","",""
"05/30/2019","07:51","219CR0012560","SUSPICIOUS ACTIVITY","SUSPICIOUS ACTIVITY","531 S MONTANA","",""
"05/30/2019","08:01","219CR0012561","CIVIL STANDBY","CIVIL STANDBY","842 S COLORADO","",""
"05/30/2019","08:19","219CR0012562","CIVIL PAPER SERVICE","CIVIL PAPER SERVICE","1018 S UTAH","",""
"05/30/2019","08:20","219CR0012563","CIVIL PAPER SERVICE","CIVIL PAPER SERVICE","205 W GRANITE","",""
"05/30/2019","08:35","219CR0012564","CIVIL PAPER SERVICE","CIVIL PAPER SERVICE","435 S CRYSTAL","",""
"05/30/2019","08:47","219CR0012565","CIVIL PAPER SERVICE","CIVIL PAPER SERVICE","3507 S WARREN","",""
"05/30/2019","08:56","219CR0012566","CIVIL PAPER SERVICE","CIVIL PAPER SERVICE","1957 OREGON","",""
"05/30/2019","09:03","219CR0012567","CIVIL PAPER SERVICE","CIVIL PAPER SERVICE","1957 S ARIZONA","",""
"05/30/2019","09:05","219CR0012568","T/S","T/S","1300 BLK KAW","",""
"05/30/2019","09:09","219CR0012569","MEDICAL - EMERGENCY","MEDICAL - EMERGENCY","1117 WAUKESHA","",""
"05/30/2019","09:22","219CR0012570","TRAFFIC","TRAFFIC","1300 BLK W PARK","",""
"05/30/2019","09:37","219CR0012571","ALARM - BURGLARY","ALARM - BURGLARY","************","",""
"05/30/2019","09:40","219CR0012572","DETENTION BUSINESS","DETENTION BUSINESS","************","",""
"05/30/2019","09:49","219CR0012573","DISTURBANCE","DISTURBANCE","GOLD AND MAIN ST","",""
"05/30/2019","09:54","219CR0012574","FOUND PROPERTY","FOUND PROPERTY","************","",""
"05/30/2019","09:57","219CR0012575","CRIMINAL TRESPASS","CRIMINAL TRESPASS","1000 E FRONT ST","",""
"05/30/2019","09:59","219CR0012576","T/S","T/S","GRAND AND CONTINENTAL","",""
"05/30/2019","10:28","219CR0012578","MEDICAL - EMERGENCY","MEDICAL - EMERGENCY","1302 E SECOND SCOOP BAR","",""
"05/30/2019","10:33","219CR0012579","FRAUD","FRAUD","UNKNOWN","",""
"05/30/2019","10:37","219CR0012580","DISTURBANCE","PFMA - MINOR INJ/PHYSICAL CONT","2625 KOSSUTH","ARREST(s) MADE",""
"05/30/2019","10:44","219CR0012581","UNWANTED PERSON","UNWANTED PERSON","************","",""
"05/30/2019","10:47","219CR0012582","THEFT","THEFT FROM MOTOR VEHICLE","3766 HARRISON AVE","",""
"05/30/2019","10:57","219CR0012583","THEFT","THEFT","","",""
"05/30/2019","11:04","219CR0012584","DISTURBANCE","DISTURBANCE","901 E FRONT THRIFTWAY","",""
"05/30/2019","11:08","219CR0012585","THEFT","THEFT","2416 FARRELL","",""
"05/30/2019","11:51","219CR0012586","THEFT","THEFT","842 S COLORADO","",""
"05/30/2019","11:54","219CR0012587","SUSPICIOUS ACTIVITY","SUSPICIOUS ACTIVITY","SHERMAN SCHOOL WALKERVILLE","",""
"05/30/2019","12:10","219CR0012588","MEDICAL - EMERGENCY","MEDICAL - EMERGENCY","628 W QUARTZ","",""
"05/30/2019","12:20","219CR0012589","LED BUSINESS","LED BUSINESS","UPTOWN FOOT PATROL","",""
"05/30/2019","12:24","219CR0012590","INFORMATION ONLY","INFORMATION ONLY","","",""
"05/30/2019","12:37","219CR0012591","JUVENILE MISC","POSSESSION OF TOBACCO PRODUCTS","","",""
"05/30/2019","12:44","219CR0012592","BUSINESS CHECK","BUSINESS CHECK","58 W PARK ST PARKING GARAGE","",""
"05/30/2019","12:54","219CR0012593","ACCIDENT","ACCIDENT","3RD ST AND UTAH AVE","",""
"05/30/2019","12:55","219CR0012594","DETENTION BUSINESS","DETENTION BUSINESS","************","",""
"05/30/2019","13:19","219CR0012595","THEFT","THEFT, ALL OTHERS","509 N WYOMING","",""
"05/30/2019","14:01","219CR0012596","ACCIDENT","ACCIDENT","1100 BLK E FRONT","",""
"05/30/2019","14:03","219CR0012597","VEHICLE INSPECTION","VEHICLE INSPECTION","2651 ALICE","",""
"05/30/2019","14:28","219CR0012599","CIVIL PAPER SERVICE","CIVIL PAPER SERVICE","842 S COLORADO","",""
"05/30/2019","14:31","219CR0012600","DISTURBANCE","DISTURBANCE","434 S CLARK ST SUMMIT SURGERY","",""
"05/30/2019","14:33","219CR0012601","HARASSMENT","HARASSMENT","SECOND ST AND UTAH AV","",""
"05/30/2019","14:43","219CR0012602","ASSIST OTHER AGENCY","ASSIST OTHER AGENCY","734 S MAIN","",""
"05/30/2019","14:44","219CR0012603","ASSIST OTHER AGENCY","ASSIST OTHER AGENCY","BASIN","",""
"05/30/2019","15:08","219CR0012604","SUSPICIOUS ACTIVITY","SUSPICIOUS ACTIVITY","4800 BLK HARRISON AV","",""
"05/30/2019","15:15","219CR0012605","SUSPICIOUS ACTIVITY","SUSPICIOUS ACTIVITY","615 W GALENA","",""
"05/30/2019","15:42","219CR0012606","ALL OTHER","ALL OTHER","1716 THOMAS","",""
"05/30/2019","15:52","219CR0012607","CIVIL STANDBY","CIVIL STANDBY","1002 S MONTANA","",""
"05/30/2019","16:25","219CR0012608","CIVIL PAPER SERVICE","CIVIL PAPER SERVICE","1705 C STREET","",""
"05/30/2019","16:27","219CR0012609","ALARM - MEDICAL","ALARM - MEDICAL","************","",""
"05/30/2019","16:28","219CR0012610","ABANDONED VEHICLE","ABANDONED VEHICLE","SECOND AND PLACER AVE","",""
"05/30/2019","16:29","219CR0012611","T/S","T/S @ COBBAN ST AND ARIZONA AVE","COBBAN ST AND ARIZONA AVE","",""
"05/30/2019","16:33","219CR0012612","DRUGS","POSSESSION OF DANGEROUS DRUGS","2929 HARRISON","",""
"05/30/2019","16:51","219CR0012613","CIVIL PAPER SERVICE","CIVIL PAPER SERVICE","1957 OREGON","",""
"05/30/2019","16:58","219CR0012614","ATL","ATL","1400 HARRISON MT LILS","",""
"05/30/2019","17:16","219CR0012615","UNWANTED PERSON","UNWANTED PERSON","************","",""
"05/30/2019","17:23","219CR0012616","ALARM - BURGLARY","ALARM - BURGLARY","************","",""
"05/30/2019","17:24","219CR0012617","RESTRAINING ORDER VIOLATION","RESTRAINING ORDER VIOLATION","************","",""
"05/30/2019","17:26","219CR0012618","UNWANTED PERSON","UNWANTED PERSON","************","",""
"05/30/2019","17:39","219CR0012619","ACCIDENT","ACCIDENT","ALABAMA AND PARK","",""
"05/30/2019","17:47","219CR0012620","MEDICAL - EMERGENCY","MEDICAL - EMERGENCY","600 NORTH ST","",""
"05/30/2019","17:55","219CR0012621","FIRE - OTHER","FIRE - OTHER","2215 S WARREN","",""
"05/30/2019","18:08","219CR0012622","VEHICLE INSPECTION","VEHICLE INSPECTION","2651 ALICE","",""
"05/30/2019","18:38","219CR0012623","ANIMAL COMPLAINT","ANIMAL COMPLAINT","CONTINENTAL AND HECLA","",""
"05/30/2019","18:47","219CR0012625","SUSPICIOUS ACTIVITY","SUSPICIOUS ACTIVITY","2215 WARREN AVE","",""
"05/30/2019","18:51","219CR0012626","ALL OTHER","ALL OTHER","GEORGE ST AND MONTANA ST","",""
"05/30/2019","19:00","219CR0012627","MEDICAL - EMERGENCY","MEDICAL - EMERGENCY","430 S COLORADO","",""
"05/30/2019","19:06","219CR0012628","CIVIL PAPER SERVICE","CIVIL PAPER SERVICE","1959 FLORENCE","",""
"05/30/2019","19:16","219CR0012629","WANTED PERSON","WANTED PERSON","************","",""
"05/30/2019","19:42","219CR0012630","CIVIL STANDBY","CIVIL STANDBY","612 1/2 W SILVER ST","",""
"05/30/2019","19:53","219CR0012631","SUSPICIOUS ACTIVITY","SUSPICIOUS ACTIVITY","1600 BLK GEORGIA","",""
"05/30/2019","20:30","219CR0012632","PARKING COMPLAINT","PARKING COMPLAINT","6 E SECOND ST","",""
"05/30/2019","20:46","219CR0012633","SUSPICIOUS ACTIVITY","SUSPICIOUS ACTIVITY","117 S MAIN","",""
"05/30/2019","20:52","219CR0012634","SUICIDE ATTEMPT/THREAT","SUICIDE ATTEMPT/THREAT","************","",""
"05/30/2019","21:06","219CR0012635","ANIMAL COMPLAINT","ANIMAL COMPLAINT","150 PAINTED MEADOWS","",""
"05/30/2019","21:16","219CR0012636","ALL OTHER","ALL OTHER","225 N ALASKA","",""
"05/30/2019","21:36","219CR0012637","HARASSMENT","HARASSMENT","HARTS RV","",""
"05/30/2019","21:48","219CR0012638","ALARM - BURGLARY","ALARM - BURGLARY","************","",""
"05/30/2019","22:23","219CR0012639","T/S","T/S @ TEXAS AND GEORGE","TEXAS AND GEORGE","",""
"05/30/2019","22:32","219CR0012640","T/S","T/S","3600 BLK HARRISON AVE","",""
"05/30/2019","22:36","219CR0012641","VANDALISM/CRIMINAL MISCHIEF","VANDALISM/CRIMINAL MISCHIEF","3400 ELIZABETH WARREN","",""
"05/30/2019","22:40","219CR0012642","THEFT","THEFT FROM MOTOR VEHICLE","400 BLK W PARK","",""
"05/30/2019","22:41","219CR0012643","SUSPICIOUS ACTIVITY","SUSPICIOUS ACTIVITY","226 W SILVER","",""
"05/30/2019","22:57","219CR0012644","T/S","T/S @ PORPHYRY AND IDAHO","PORPHYRY AND IDAHO","",""
"05/30/2019","23:26","219CR0012646","T/S","T/S","YALE AND MASSACHUSETTS","",""
"05/30/2019","23:38","219CR0012647","T/S","T/S","HOWARD AND FARRELL","",""
"05/31/2019","00:01","219CR0012648","T/S","DRIVE WHILE SUSP. OR REVOKED","HOBSON AND MARYLAND","ARREST(s) MADE",""
"05/31/2019","00:12","219CR0012649","BUSINESS CHECK","BUSINESS CHECK","2544 HARRISON LISACS TRI STOP","",""
"05/31/2019","00:16","219CR0012650","UNWANTED PERSON","UNWANTED PERSON","************","",""
"05/31/2019","00:31","219CR0012651","T/S","T/S","BUSCH ST AND YALE ST","",""
"05/31/2019","01:12","219CR0012652","MEDICAL - EMERGENCY","MEDICAL - EMERGENCY","55 BASIN CREEK RD","",""
"05/31/2019","02:43","219CR0012653","SUSPICIOUS ACTIVITY","CRIMINAL TRESPASS TO PROPERTY","1718 YALE","ARREST(s) MADE",""
"05/31/2019","03:04","219CR0012654","T/S","T/S @ 1900 BLK DEWEY BLVD","1900 BLK DEWEY BLVD","",""
"05/31/2019","04:05","219CR0012655","SUSPICIOUS ACTIVITY","SUSPICIOUS ACTIVITY","200 BLK NINE MILE RD","",""
"05/31/2019","05:00","219CR0012656","DISTURBANCE-NOISE","DISTURBANCE-NOISE","DUNN AVE AND DALY ST","",""
"05/31/2019","05:47","219CR0012657","ALARM - BURGLARY","ALARM - BURGLARY","************","",""
 

BSB police report ending May 30, 2019

"05/29/2019","00:03","219CR0012447","SUSPICIOUS ACTIVITY","SUSPICIOUS ACTIVITY","STODDEN PARK","",""
"05/29/2019","00:08","219CR0012448","SUSPICIOUS ACTIVITY","SUSPICIOUS ACTIVITY","CIVIC CENTER 1340 HARRISON","",""
"05/29/2019","00:25","219CR0012449","BUSINESS CHECK","BUSINESS CHECK","2000 DEWEY BLVD DOTTYS CASINO","",""
"05/29/2019","00:30","219CR0012450","SUSPICIOUS ACTIVITY","SUSPICIOUS ACTIVITY","GRAINTE MOUNTIAN MEMORIAL","",""
"05/29/2019","01:36","219CR0012451","DISTURBANCE","DISTURBANCE","318 S EXCELSIOR AVE","",""
"05/29/2019","02:36","219CR0012452","DISTURBANCE","PFMA - REASONABLE APPREHENSION","931 S UTAH","ARREST(s) MADE",""
"05/29/2019","02:40","219CR0012453","ASSAULT","ASSAULT","************","",""
"05/29/2019","05:38","219CR0012454","UNWANTED PERSON","UNWANTED PERSON","************","",""
"05/29/2019","06:14","219CR0012455","LED BUSINESS","LED BUSINESS","155 W GRANITE","",""
"05/29/2019","07:24","219CR0012456","T/S","T/S","1000 BLK OF GRIZZLEY TRAIL","",""
"05/29/2019","07:34","219CR0012457","CIVIL PAPER SERVICE","CIVIL PAPER SERVICE","652 S WASHINGTON","",""
"05/29/2019","07:46","219CR0012458","SUSPICIOUS ACTIVITY","SUSPICIOUS ACTIVITY","I 15 MM 127","",""
"05/29/2019","07:57","219CR0012459","T/S","T/S","","",""
"05/29/2019","08:07","219CR0012460","CIVIL PAPER SERVICE","CIVIL PAPER SERVICE","1105 FARRELL","",""
"05/29/2019","08:14","219CR0012462","CIVIL PAPER SERVICE","CIVIL PAPER SERVICE","33 E IRON","",""
"05/29/2019","08:19","219CR0012463","T/S","DRIVING W/OUT VALID D/L","FRONT ST AND OREGON AVE","",""
"05/29/2019","08:24","219CR0012464","CIVIL PAPER SERVICE","CIVIL PAPER SERVICE","1957 S ARIZONA","",""
"05/29/2019","08:25","219CR0012465","SUSPICIOUS ACTIVITY","SUSPICIOUS ACTIVITY","3901 HARRISON AVE","",""
"05/29/2019","08:34","219CR0012466","T/S","T/S","FRONT AND ARIZONA","",""
"05/29/2019","08:35","219CR0012467","CIVIL PAPER SERVICE","CIVIL PAPER SERVICE","3507 S WARREN","",""
"05/29/2019","08:45","219CR0012468","T/S","T/S @ HARRISON AND GARLAND","HARRISON AND GARLAND","",""
"05/29/2019","08:49","219CR0012469","T/S","T/S @ HARRISON AND MCKINLEY","HARRISON AND MCKINLEY","",""
"05/29/2019","08:54","219CR0012470","CIVIL PAPER SERVICE","CIVIL PAPER SERVICE","3246 S DAKOTA","",""
"05/29/2019","08:57","219CR0012471","T/S","T/S","2551 HARRISON AVE","",""
"05/29/2019","09:09","219CR0012472","T/S","T/S","MERCURY AND MAIN","",""
"05/29/2019","09:19","219CR0012473","ALARM - FIRE","ALARM - FIRE","65 E BROADWAY","",""
"05/29/2019","09:22","219CR0012474","T/S","T/S","500 BLK S MONTANA","",""
"05/29/2019","09:28","219CR0012475","DISTURBANCE","DISORDERLY CONDUCT","3638 SADDLEROCK RD","",""
"05/29/2019","09:52","219CR0012476","CITIZEN AID","CITIZEN AID","1571 ELM","",""
"05/29/2019","10:22","219CR0012478","MEDICAL - EMERGENCY","MEDICAL - EMERGENCY","435 S CRYSTAL MT ORTHOPEDICS","",""
"05/29/2019","10:34","219CR0012479","CIVIL PAPER SERVICE","CIVIL PAPER SERVICE","5100 S WARREN #56","",""
"05/29/2019","10:35","219CR0012480","ACCIDENT - INJURY","ACCIDENT - INJURY","2600 BLK HARRISON","",""
"05/29/2019","10:53","219CR0012483","ALL OTHER","ALL OTHER","237 E MERCURY","",""
"05/29/2019","10:59","219CR0012481","MEDICAL - EMERGENCY","MEDICAL - EMERGENCY","1335 JOY LANE","",""
"05/29/2019","11:01","219CR0012482","ALL OTHER","ALL OTHER","120 N IDAHO","",""
"05/29/2019","11:10","219CR0012484","HARASSMENT","HARASSMENT","1130 MARYLAND","",""
"05/29/2019","11:36","219CR0012485","ASSIST OTHER AGENCY","ASSIST OTHER AGENCY","I90 MM 231 WB","",""
"05/29/2019","11:52","219CR0012486","LED BUSINESS","LED BUSINESS","2100 FARRAGUT ST ANNS CHURCH","",""
"05/29/2019","11:53","219CR0012487","MEDICAL - EMERGENCY","MEDICAL - EMERGENCY","ST JAMES HOSPITAL PARKING LOT","",""
"05/29/2019","12:22","219CR0012488","THEFT","THEFT, SHOPLIFT","3703 HARRISON SEARS","",""
"05/29/2019","12:23","219CR0012489","LED BUSINESS","LED BUSINESS","58 W PARK ST","",""
"05/29/2019","12:24","219CR0012490","HIT AND RUN","DRIVE WHILE SUSP. OR REVOKED","1201 S MONTANA JOKERS WILD","",""
"05/29/2019","12:25","219CR0012491","ASSIST OTHER AGENCY","ASSIST OTHER AGENCY","2101 HARRISON AVE","",""
"05/29/2019","12:58","219CR0012492","DETENTION BUSINESS","DETENTION BUSINESS","************","",""
"05/29/2019","13:08","219CR0012493","ALARM - BURGLARY","ALARM - BURGLARY","************","",""
"05/29/2019","13:33","219CR0012494","T/S","T/S","MONTANA AT I15","",""
"05/29/2019","13:43","219CR0012496","CIVIL PAPER SERVICE","CIVIL PAPER SERVICE","842 S COLORADO","",""
"05/29/2019","13:56","219CR0012497","TRAFFIC HAZARD","TRAFFIC HAZARD","617 S MAIN","",""
"05/29/2019","14:00","219CR0012498","HIT AND RUN","HIT AND RUN","1700 LONGFELLOW","",""
"05/29/2019","14:00","219CR0012499","HARASSMENT","HARASSMENT","1749 WALL ST","",""
"05/29/2019","14:21","219CR0012501","T/S","T/S","617 S MAIN ST","",""
"05/29/2019","14:46","219CR0012502","PARKING COMPLAINT","PARKING COMPLAINT","1000 BLK W PARK","",""
"05/29/2019","14:58","219CR0012503","BUSINESS CHECK","BUSINESS CHECK","58 W PARK ST PARKING GARAGE","",""
"05/29/2019","15:02","219CR0012505","FOUND PROPERTY","FOUND PROPERTY","************","",""
"05/29/2019","15:03","219CR0012504","THEFT","THEFT, SHOPLIFT","3901 HARRISON AVE","ARREST(s) MADE",""
"05/29/2019","15:04","219CR0012506","T/S","T/S @ BROADWAY AND MONTANA ST","BROADWAY AND MONTANA ST","",""
"05/29/2019","15:27","219CR0012507","T/S","T/S @ 1300 BLK UTAH AVE","1300 BLK UTAH AVE","",""
"05/29/2019","15:43","219CR0012508","T/S","T/S @ ARGYLE ST AND HARRISON AVE","ARGYLE ST AND HARRISON AVE","",""
"05/29/2019","15:50","219CR0012509","ALL OTHER","ALL OTHER","3201 KEOKUK ST","",""
"05/29/2019","15:57","219CR0012510","T/S","T/S @ 3500 BLK HARRISON AVE","3500 BLK HARRISON AVE","",""
"05/29/2019","15:59","219CR0012511","ALL OTHER","ALL OTHER","1630 PHILLIPS AVE","",""
"05/29/2019","16:07","219CR0012512","T/S","T/S @ AMHERST AND HARRISON","AMHERST AND HARRISON","",""
"05/29/2019","16:16","219CR0012513","T/S","T/S @ 1301 HARRISON","1301 HARRISON","",""
"05/29/2019","16:18","219CR0012514","T/S","T/S","FIRST AND UTAH","",""
"05/29/2019","16:35","219CR0012515","T/S","T/S @ MAIN ST AND SECOND ST","MAIN ST AND SECOND ST","",""
"05/29/2019","16:50","219CR0012516","T/S","T/S @ 1100 BLK E FRONT","1100 BLK E FRONT","",""
"05/29/2019","17:02","219CR0012517","DISTURBANCE","DISTURBANCE","2341 COBBAN CLEAN // DRY LAUN","",""
"05/29/2019","17:14","219CR0012518","SUSPICIOUS ACTIVITY","SUSPICIOUS ACTIVITY","2000 DEWEY BLVD DOTTYS CASINO","",""
"05/29/2019","17:15","219CR0012519","JUVENILE MISC","JUVENILE MISC","************","",""
"05/29/2019","17:17","219CR0012520","WELFARE CHECK","WELFARE CHECK","623 W IRON","",""
"05/29/2019","17:27","219CR0012521","SUSPICIOUS ACTIVITY","SUSPICIOUS ACTIVITY","2310 COBBAN BSW THRIFTSTORE","",""
"05/29/2019","17:42","219CR0012522","T/S","T/S @ 1370 HARRISON TOWN PUMP","1370 HARRISON TOWN PUMP","",""
"05/29/2019","18:19","219CR0012523","JUVENILE MISC","JUVENILE MISC","************","",""
"05/29/2019","18:25","219CR0012524","WELFARE CHECK","WELFARE CHECK","848 W PARK","",""
"05/29/2019","18:39","219CR0012525","MEDICAL - EMERGENCY","MEDICAL - EMERGENCY","842 W GALENA ST","",""
"05/29/2019","18:49","219CR0012526","SUSPICIOUS ACTIVITY","SUSPICIOUS ACTIVITY","130 W BROADWAY ST","",""
"05/29/2019","19:09","219CR0012528","DISTURBANCE","DISTURBANCE","2512 PRINCETON ST","",""
"05/29/2019","19:09","219CR0012527","DISTURBANCE","DISTURBANCE","2512 PRINCETON","",""
"05/29/2019","19:27","219CR0012529","DISTURBANCE","DISTURBANCE","1812 A ST","",""
"05/29/2019","19:32","219CR0012530","T/S","T/S","920 S MONTANA","",""
"05/29/2019","19:39","219CR0012531","FIRE- GAS ODOR","FIRE- GAS ODOR","215 LUPINE LANE","",""
"05/29/2019","19:57","219CR0012532","ALL OTHER","ALL OTHER","1002 S MONTANA","",""
"05/29/2019","20:15","219CR0012533","WELFARE CHECK","WELFARE CHECK","ALABAMA AND PLATINUM","",""
"05/29/2019","20:20","219CR0012534","DRUGS","DRUGS","************","",""
"05/29/2019","20:29","219CR0012535","T/S","T/S @ GEORGE AND HARRISON","GEORGE AND HARRISON","",""
"05/29/2019","20:30","219CR0012536","BUSINESS CHECK","BUSINESS CHECK","1370 HARRISON","",""
"05/29/2019","20:49","219CR0012537","MEDICAL - EMERGENCY","MEDICAL - EMERGENCY","225 N ALASKA","",""
"05/29/2019","20:56","219CR0012538","ANIMAL COMPLAINT","ANIMAL COMPLAINT","2930 EAGLE ST","",""
"05/29/2019","21:16","219CR0012539","HARASSMENT","PRIVACY IN COMMUNICATION","3099 HARRISON AVE","",""
"05/29/2019","21:25","219CR0012540","ALL OTHER","ASSAULT PEACE OFFC -  NO INJ","205 W GRANITE","ARREST(s) MADE",""
"05/29/2019","22:04","219CR0012541","SUSPICIOUS ACTIVITY","SUSPICIOUS ACTIVITY","1705 WALL","",""
"05/29/2019","22:14","219CR0012542","CITIZEN AID","CITIZEN AID","144 COTTAGE LOOP","",""
"05/29/2019","22:30","219CR0012543","JUVENILE MISC","JUVENILE MISC","************","",""
"05/29/2019","22:56","219CR0012544","DISTURBANCE","DISTURBANCE","201 HOBSON AVE #16","",""
"05/29/2019","23:11","219CR0012545","ANIMAL COMPLAINT","ANIMAL COMPLAINT","GRAND AND HARRISON","",""
"05/29/2019","23:19","219CR0012546","BUSINESS CHECK","BUSINESS CHECK","531 S MONTANA","",""
"05/29/2019","23:21","219CR0012548","JUVENILE MISC","JUVENILE MISC","************","",""
"05/29/2019","23:23","219CR0012547","MEDICAL - EMERGENCY","MEDICAL - EMERGENCY","155 W QUARTZ","",""
"05/29/2019","23:27","219CR0012549","ALARM - BURGLARY","ALARM - BURGLARY","************","",""
"05/29/2019","23:31","219CR0012550","BUSINESS CHECK","BUSINESS CHECK","1370 HARRISON AVE","",""
"05/29/2019","23:51","219CR0012551","SUSPICIOUS ACTIVITY","SUSPICIOUS ACTIVITY","1370 HARRISON AVE","",""
"05/30/2019","00:00","219CR0012552","JUVENILE MISC","JUVENILE MISC","************","",""
"05/30/2019","00:04","219CR0012553","T/S","AGGRAVATED DUI","COBBAN AND CAROLINA","ARREST(s) MADE",""
"05/30/2019","00:12","219CR0012554","SUSPICIOUS ACTIVITY","SUSPICIOUS ACTIVITY","2100 BLK GRAND AVE","",""
"05/30/2019","02:07","219CR0012555","DISTURBANCE","DISTURBANCE","312 SILVER BOW HOMES","",""
"05/30/2019","04:18","219CR0012556","DISTURBANCE","DISTURBANCE","817 S DAKOTA","",""
"05/30/2019","04:30","219CR0012557","WELFARE CHECK","WELFARE CHECK","HARRISON AND I15 E BND ONRAMP","",""
"05/30/2019","05:09","219CR0012558","ALARM - BURGLARY","ALARM - BURGLARY","************","",""
"05/30/2019","05:17","219CR0012559","ALARM - BURGLARY","ALARM - BURGLARY","************","",""
 

Subcategories

Wednesday the 19th. Affiliate Marketing.
Copyright 2012

©